GFSWCAN_925_thetae_081.txt.gz
Theta_e
316 314 314 315 318 317 315 305 305 308 310 311 310 308 308 308 308 312 318 316 320 321 320 318 317 317 316 319 319 318 316 316 316 321 322 323 325 324 325 323 322 322 324 323 321 322 322 320 318 319 325 322 321 321
315 314 314 315 318 316 309 304 305 307 310 311 311 310 309 310 311 313 318 318 317 322 323 318 317 318 318 318 318 317 318 315 316 319 319 320 324 322 323 325 319 323 321 325 321 327 323 320 321 322 321 320 318 318
313 313 314 315 317 316 308 304 305 307 308 311 312 312 312 312 313 315 319 320 321 322 321 319 320 318 318 318 317 320 317 317 315 316 318 320 322 321 324 324 320 317 318 320 319 320 321 319 319 318 317 317 317 316
313 313 314 316 318 316 311 304 305 306 307 309 311 312 313 313 313 317 320 319 320 320 321 322 318 318 318 318 318 317 318 315 316 316 317 318 320 317 321 321 317 319 318 316 317 318 316 318 318 317 315 314 314 314
312 313 314 317 316 316 310 304 306 306 306 307 310 311 312 312 312 318 320 319 319 323 324 322 318 318 318 318 318 316 316 318 319 319 319 320 319 317 317 317 318 317 318 318 319 318 318 316 317 316 314 313 313 313
310 312 314 316 315 316 307 305 306 306 307 308 308 310 311 311 311 319 323 320 319 319 323 322 319 320 319 318 318 317 318 319 319 319 319 319 319 320 324 324 322 320 319 317 319 318 317 315 315 314 314 314 313 312
309 312 315 316 315 315 305 305 306 306 308 309 309 310 311 311 315 319 322 318 316 319 323 321 324 321 319 319 320 319 317 319 319 319 320 318 315 319 322 325 320 320 319 319 318 317 317 315 315 314 313 313 311 311
310 312 314 314 314 314 304 305 306 306 308 311 311 311 311 313 316 319 318 317 315 320 321 323 323 323 320 322 324 319 320 319 319 319 315 315 311 311 312 316 317 317 317 317 318 316 316 314 315 314 313 312 313 312
311 313 314 314 314 308 304 305 306 306 307 311 312 313 315 317 321 320 315 315 318 322 325 322 320 326 322 324 323 322 321 322 318 320 319 315 313 315 316 318 316 316 316 317 316 316 317 314 314 314 314 313 313 313
313 313 314 314 313 304 304 305 306 306 307 312 316 321 323 322 316 316 321 324 324 323 322 322 320 321 319 324 324 324 321 322 323 321 318 319 320 318 319 316 316 317 317 316 317 316 315 314 312 313 313 313 312 312
313 313 313 313 306 303 304 305 307 309 308 317 321 322 320 317 321 321 324 325 324 324 322 322 322 320 322 323 323 321 322 322 323 322 321 320 320 319 315 315 316 316 315 314 314 313 312 311 312 313 313 312 311 310
312 312 311 305 304 305 307 308 309 310 316 319 319 318 321 322 323 325 327 325 326 326 324 323 322 321 321 321 321 321 321 320 322 320 318 321 319 317 315 315 316 316 315 314 313 313 312 312 311 312 311 311 311 311
310 307 305 304 305 308 309 309 308 313 315 317 319 322 324 325 325 330 328 328 328 323 324 322 324 322 322 321 320 322 320 320 317 319 321 318 318 316 316 315 314 315 315 314 314 314 313 313 312 312 312 312 312 312
303 303 303 304 305 309 310 309 310 311 313 320 323 326 328 329 328 327 327 326 325 322 320 318 321 321 321 322 320 321 320 318 317 319 319 319 319 318 316 314 314 313 313 314 314 314 314 314 314 313 313 314 313 312
307 309 308 308 305 305 308 308 310 313 317 320 319 321 328 327 326 326 324 325 323 320 319 320 321 319 322 318 318 317 317 317 315 316 316 319 318 316 315 314 314 313 314 314 314 314 314 313 313 313 312 313 314 313
309 313 309 308 308 307 307 309 312 316 318 318 319 322 325 326 326 326 325 323 320 319 319 317 317 317 317 316 315 316 314 314 314 315 315 316 317 315 315 315 313 312 312 312 312 312 311 311 311 311 312 312 313 313
309 315 308 308 308 307 308 314 316 318 319 320 320 319 322 327 327 326 323 323 319 321 320 316 315 315 313 314 315 315 315 315 315 315 316 319 318 316 314 311 311 310 310 309 309 309 309 309 310 310 311 310 309 309
316 313 309 310 310 312 315 315 319 321 322 320 321 324 325 327 328 326 324 323 320 321 321 321 318 318 315 314 314 314 315 315 315 315 316 317 315 313 311 310 309 309 308 308 308 308 309 309 310 310 309 309 309 309
309 310 311 310 310 309 316 320 320 321 321 319 322 324 326 327 327 327 326 324 321 321 321 321 321 320 318 317 317 315 314 314 315 316 318 315 313 311 309 308 308 307 307 307 307 308 308 308 308 308 308 306 306 306
306 307 308 308 306 314 319 319 321 324 324 325 324 327 329 329 328 328 327 326 325 324 323 323 322 323 320 319 318 315 314 315 315 316 316 314 311 309 308 308 307 307 307 308 307 306 307 307 308 307 307 306 304 304
310 314 314 312 311 313 319 320 322 322 323 326 325 328 328 328 329 328 327 327 327 327 325 324 325 325 322 319 317 315 317 315 316 314 313 312 309 308 308 307 306 306 307 308 307 307 307 307 307 306 307 305 304 306
313 310 318 318 320 321 321 319 320 322 321 320 323 324 325 327 327 328 330 328 328 327 327 326 326 325 324 320 318 316 318 318 314 309 305 305 309 309 308 307 306 307 308 307 307 307 306 306 307 307 306 305 306 305
310 310 315 320 321 323 322 321 323 322 323 323 324 327 328 328 327 328 328 327 326 326 326 325 325 323 322 320 319 319 316 312 311 309 307 308 307 306 306 306 306 307 307 307 306 307 306 305 305 306 305 306 305 305
310 316 320 322 321 323 321 324 325 327 328 329 330 330 330 330 329 329 329 326 326 326 324 326 323 324 321 319 319 316 313 310 310 308 307 307 307 307 306 306 307 306 306 306 306 305 305 305 304 306 304 304 304 304
318 316 319 318 321 323 323 326 326 326 328 329 330 330 330 328 330 329 328 325 325 324 325 324 322 321 321 319 315 312 310 309 309 309 307 307 307 306 306 306 307 306 306 306 306 305 304 304 304 304 304 304 304 303
319 319 322 319 319 322 322 325 327 328 329 328 328 329 328 330 330 328 327 324 324 324 324 323 321 321 319 315 313 311 309 309 308 308 307 307 306 307 307 307 307 306 305 305 305 305 304 304 303 304 304 303 300 303
315 318 319 318 321 321 321 321 323 325 327 327 329 331 330 329 328 329 327 324 323 322 321 320 319 318 315 313 310 309 308 308 308 308 307 306 306 305 305 305 307 306 305 304 304 305 304 304 304 303 303 303 303 302
319 319 319 318 318 318 318 320 322 325 326 326 328 329 329 327 328 330 326 323 322 321 319 318 316 313 312 310 309 309 308 308 307 306 306 305 305 304 304 305 306 304 305 304 305 304 304 304 304 303 303 303 303 303
320 319 319 318 318 318 319 321 323 323 325 327 330 328 327 326 325 326 324 322 321 319 318 315 312 310 309 309 308 307 308 307 306 307 307 306 305 304 304 305 304 303 304 303 301 302 303 303 303 303 303 303 302 302
320 318 318 319 319 317 317 317 318 320 323 326 325 326 326 324 325 326 325 322 320 320 316 314 310 309 309 309 308 307 307 307 306 307 307 308 306 305 304 304 304 304 305 303 302 302 299 300 302 303 303 303 303 303
318 318 318 319 319 318 317 316 316 317 319 321 322 322 322 326 326 321 319 319 318 317 313 311 310 309 309 309 307 306 307 306 306 306 306 306 306 304 304 304 304 304 303 303 304 304 304 303 304 304 304 304 303 302
319 320 320 319 318 317 317 319 320 322 322 324 327 328 328 330 330 319 312 313 314 312 310 311 311 310 310 309 308 308 306 308 307 306 306 305 305 304 304 303 303 303 303 303 304 304 304 304 304 304 304 304 304 304
321 321 320 320 319 319 319 319 323 324 325 329 333 329 327 328 326 317 311 309 307 307 309 310 309 307 307 308 307 308 307 307 307 306 305 305 305 304 304 303 303 303 303 303 303 304 304 304 304 304 304 304 304 304

GFSWCAN_925_thetae_084.txt.gz
Theta_e
314 315 313 315 316 317 314 305 305 307 310 311 311 309 308 309 310 311 321 318 320 325 321 318 317 318 317 320 322 320 318 318 318 323 323 327 328 330 327 326 325 322 322 322 320 322 325 322 319 320 328 325 323 325
312 312 313 314 315 317 314 304 305 307 308 311 312 311 312 313 313 315 321 320 320 323 324 318 318 319 319 319 320 317 319 318 318 322 320 322 326 323 323 327 321 326 325 331 325 330 324 323 326 324 323 323 322 322
313 312 313 314 315 317 316 305 305 307 308 310 312 312 313 313 314 315 321 320 320 323 323 319 320 318 318 318 319 321 320 319 317 318 320 321 323 322 326 325 325 319 319 323 322 325 324 322 322 321 321 320 319 319
310 312 313 314 316 317 318 306 305 306 307 308 311 312 313 313 313 317 321 320 320 323 323 324 320 319 318 318 318 318 320 317 317 316 318 319 321 320 321 323 320 320 320 318 319 320 319 319 319 319 317 317 317 316
310 311 312 313 316 317 318 305 305 306 307 307 308 311 312 312 312 316 321 320 320 324 328 322 320 319 319 319 318 317 317 319 321 321 321 321 321 323 319 318 319 319 318 319 320 319 321 320 319 319 317 315 315 315
312 310 312 313 315 316 316 304 305 306 307 309 308 309 311 312 312 318 324 321 320 320 325 322 322 321 320 320 319 318 319 320 320 320 320 323 320 321 326 328 323 322 321 321 321 320 319 318 317 317 316 315 314 314
312 311 311 313 315 316 313 305 306 306 308 309 309 310 312 312 315 320 323 320 317 320 326 323 325 322 320 320 320 320 319 320 320 321 324 322 320 320 323 327 323 320 320 320 319 320 319 317 316 316 315 314 313 313
312 311 311 313 315 316 309 305 305 306 308 311 312 313 313 314 317 321 320 317 315 323 323 326 325 324 321 322 322 320 321 321 320 321 319 319 316 314 316 319 318 317 317 317 318 317 318 316 316 317 314 314 315 313
312 311 312 314 315 315 305 305 305 306 307 311 314 314 316 319 323 321 315 315 319 324 330 323 323 330 322 324 324 326 323 325 320 321 321 319 317 315 317 318 319 318 317 317 316 316 317 317 318 315 315 315 315 314
313 313 313 315 314 309 304 304 305 306 307 311 316 322 326 322 317 318 322 326 326 324 324 325 320 324 322 324 324 324 321 324 325 322 318 320 320 319 319 320 321 318 316 316 317 318 318 317 317 317 315 315 314 314
313 313 314 314 312 304 304 305 306 309 308 317 323 325 321 318 323 324 326 328 326 327 325 323 322 320 322 320 322 323 323 322 324 324 321 322 322 321 320 317 319 318 316 315 315 316 315 315 316 316 315 314 313 313
313 313 313 311 304 304 305 307 309 310 318 317 317 318 322 323 325 327 328 325 325 327 326 323 323 321 320 320 321 322 321 322 322 321 321 323 319 320 317 315 316 316 316 315 315 315 315 314 314 314 313 313 313 312
309 306 306 307 307 309 309 309 308 312 314 319 321 324 325 326 326 330 330 330 330 324 324 324 326 322 321 320 321 321 322 320 319 321 322 320 321 320 318 316 314 314 315 315 315 315 315 314 313 313 314 313 313 313
304 303 304 304 306 310 310 310 311 313 313 322 324 320 327 330 329 328 329 328 327 322 321 319 320 319 320 320 320 322 320 318 317 320 320 323 321 319 317 315 314 314 314 314 315 316 315 314 314 314 313 313 313 313
308 309 309 308 305 306 309 309 309 313 319 321 320 325 328 328 327 327 323 324 323 320 320 321 321 319 321 321 319 316 316 318 318 319 318 323 320 317 316 315 315 315 313 313 313 314 314 314 314 315 313 312 313 314
309 312 310 308 308 307 307 309 313 318 319 319 320 322 325 328 328 327 326 325 321 320 321 319 318 318 317 317 316 317 315 314 316 316 320 321 320 318 316 314 313 312 311 311 310 309 309 310 310 311 310 312 313 313
311 317 309 309 312 310 308 314 319 319 320 321 321 319 322 329 329 327 327 325 321 321 323 319 317 317 314 315 315 315 315 315 316 318 321 321 319 317 314 312 311 310 310 309 309 308 309 309 309 309 311 312 311 311
317 315 312 310 311 314 317 315 319 321 322 321 320 322 324 326 327 328 327 324 321 322 322 323 321 320 320 316 317 316 315 315 316 318 320 320 318 315 312 311 310 309 309 308 308 309 309 309 309 309 310 310 309 308
308 309 310 310 311 310 316 320 320 322 322 320 320 321 325 326 327 327 327 327 323 321 322 322 323 323 323 321 322 318 315 315 316 320 321 318 314 312 311 310 309 309 308 310 309 308 308 309 309 309 309 308 307 307
307 307 308 309 306 314 319 319 321 322 323 326 322 321 328 328 328 327 328 329 326 325 325 323 326 326 324 325 323 318 316 315 315 316 318 317 314 311 310 309 308 308 309 309 308 307 308 308 308 307 308 306 306 306
311 314 314 313 311 313 318 321 322 321 322 323 323 324 326 327 328 327 330 327 327 328 328 325 325 324 325 324 320 318 319 315 315 316 315 316 313 311 310 309 308 308 308 308 308 307 308 307 308 308 308 308 308 307
315 312 316 318 320 321 321 319 319 321 323 323 321 323 325 325 327 329 328 329 329 328 328 328 329 327 327 324 321 318 320 318 316 311 309 308 310 310 310 309 308 308 309 308 308 307 307 307 307 307 307 308 307 307
313 312 314 318 322 321 321 319 322 323 322 323 323 321 322 325 325 328 330 328 329 329 327 327 330 327 327 322 320 321 318 313 312 311 309 309 309 309 308 308 307 308 309 308 308 308 307 305 306 306 306 306 306 306
313 315 319 321 322 322 320 322 323 323 326 326 326 329 331 330 330 330 329 328 328 328 329 333 327 326 325 323 322 319 316 313 312 311 309 309 309 308 308 307 308 308 307 308 307 306 306 306 304 306 306 305 305 305
316 315 317 316 322 324 322 322 325 324 326 328 330 331 330 330 333 331 330 329 324 328 328 328 325 325 323 322 320 317 314 312 311 311 309 309 309 308 307 307 308 307 307 308 308 307 306 306 305 305 305 304 303 305
320 318 319 320 319 320 319 322 327 326 328 328 328 330 328 326 329 330 330 329 326 327 327 326 324 323 322 320 318 315 312 310 310 310 309 308 308 308 308 308 308 307 307 306 306 306 306 305 305 305 305 303 301 303
320 320 321 320 320 322 322 320 321 323 325 330 331 332 329 329 329 330 324 322 327 324 324 323 321 321 320 318 315 313 311 310 310 309 309 308 307 308 307 307 307 308 307 306 306 306 306 306 305 305 305 304 304 303
320 320 320 321 319 319 318 319 321 323 324 328 329 331 328 328 330 326 325 322 324 323 323 321 319 319 316 314 312 311 310 309 309 308 308 307 307 305 306 306 306 306 306 305 305 306 306 306 305 305 305 305 304 304
321 321 321 321 320 319 320 320 321 320 324 327 330 328 328 327 327 328 326 325 324 323 322 320 318 314 313 312 310 310 309 308 307 308 308 307 306 305 305 306 306 306 305 305 304 303 303 303 303 303 305 304 304 303
321 320 319 320 321 321 319 318 318 319 321 322 325 327 327 328 323 321 322 323 324 323 322 319 315 312 311 310 309 309 308 307 307 308 309 308 308 307 305 305 306 304 305 305 304 302 301 302 303 303 304 305 305 305
320 320 320 320 320 320 320 318 318 317 317 317 319 322 325 328 324 316 315 316 318 314 316 315 312 311 311 310 309 308 308 307 307 307 307 307 308 307 306 305 305 306 306 306 305 304 304 303 305 305 306 305 305 304
319 319 320 321 321 320 319 318 318 319 321 322 327 328 327 329 327 322 315 314 313 311 310 310 310 310 308 307 309 309 308 308 308 308 307 307 306 306 306 305 305 305 305 305 305 305 306 305 305 306 306 305 306 305
322 321 321 321 321 320 320 320 319 320 326 327 326 327 328 327 326 321 316 312 312 313 314 311 310 309 309 309 310 309 308 309 309 307 306 306 306 306 306 305 305 305 305 305 305 305 305 305 305 305 306 306 305 305

GFSWCAN_925_thetae_087.txt.gz
Theta_e
311 312 312 312 314 316 318 308 305 307 308 311 312 312 312 313 313 315 320 320 321 325 322 319 319 322 322 321 321 320 319 319 319 325 328 329 329 331 328 325 325 325 322 323 321 325 329 327 325 329 328 322 324 325
310 311 312 312 314 316 318 312 305 307 308 310 312 313 313 313 313 316 323 321 320 324 325 319 319 318 319 318 319 318 318 320 317 326 325 326 328 324 323 328 322 326 324 329 330 328 325 324 324 322 320 322 320 319
311 310 312 313 314 316 318 316 305 306 307 308 311 313 313 313 313 315 320 323 320 325 325 319 319 317 318 319 319 322 321 320 320 319 321 324 325 324 328 326 323 321 319 323 326 326 324 323 321 321 320 319 319 316
312 311 310 312 315 317 319 318 305 306 307 308 309 311 312 312 312 312 319 322 322 325 326 323 320 319 318 318 318 318 319 317 317 316 317 320 326 323 324 324 320 321 320 318 320 323 321 322 321 319 317 319 317 317
315 314 311 311 315 317 319 317 305 306 307 308 308 309 311 311 312 313 319 321 320 323 328 324 320 319 319 319 318 317 319 321 322 323 322 324 323 322 322 322 324 322 323 322 322 322 321 322 319 318 317 316 316 315
314 313 313 311 315 317 318 313 305 306 307 309 309 309 310 312 313 321 326 322 320 318 326 328 321 321 320 320 319 320 320 320 320 321 322 322 319 319 325 323 323 321 320 320 322 320 319 319 318 319 318 315 315 314
313 313 312 311 315 317 317 307 305 306 308 310 311 311 312 313 317 321 324 320 316 319 328 327 325 322 320 320 321 320 320 320 321 322 323 322 317 319 323 323 322 321 319 319 318 319 320 319 318 316 316 315 314 314
312 312 311 312 315 316 316 305 305 306 307 311 312 313 313 315 318 320 321 318 316 321 327 328 327 326 321 322 323 321 322 321 321 321 320 319 316 315 313 317 318 319 318 319 318 317 317 317 315 315 317 316 314 314
312 311 311 313 315 315 313 305 306 306 307 310 314 314 316 319 324 322 317 315 318 323 331 327 328 329 324 325 325 325 323 325 321 322 322 319 315 312 312 318 319 320 318 317 316 316 316 317 317 317 314 315 315 313
312 312 313 315 315 314 306 305 305 306 308 308 314 321 327 323 318 319 322 326 326 328 328 328 325 327 324 325 326 325 324 325 325 322 318 320 317 315 318 318 320 320 316 316 317 318 317 317 316 316 316 314 315 315
313 313 314 314 314 308 304 305 306 309 309 315 323 326 321 320 323 327 329 330 328 328 326 327 325 323 323 324 325 324 324 324 326 324 322 323 323 323 321 320 318 318 318 316 315 315 315 315 315 315 315 314 313 314
313 313 313 312 306 304 304 305 309 310 318 316 316 315 321 325 325 327 331 328 328 329 327 327 326 323 324 322 324 324 324 324 324 322 323 323 322 321 320 317 317 316 317 317 316 316 315 315 314 314 314 315 314 313
306 306 306 306 307 309 309 309 309 309 313 319 321 325 326 327 324 329 332 332 332 329 328 326 328 327 324 324 323 323 322 324 322 323 326 321 321 318 316 319 316 316 317 317 317 316 315 315 315 314 314 314 313 313
304 304 305 307 306 309 310 310 311 313 312 322 325 317 328 330 330 332 330 330 329 325 324 325 325 324 322 323 322 322 323 321 321 323 322 324 321 320 319 316 316 315 315 313 315 315 315 315 315 314 314 314 314 314
308 309 309 308 306 307 309 309 308 310 319 323 323 318 327 328 328 327 328 329 326 323 323 323 324 322 324 323 323 319 319 319 321 323 321 324 323 319 317 316 315 314 313 313 312 311 310 311 312 313 313 313 313 313
309 313 309 308 308 307 306 308 312 317 320 321 322 323 325 328 329 328 329 328 325 323 323 323 322 321 321 322 321 319 318 319 319 322 321 323 322 320 317 315 315 312 312 311 310 310 309 310 311 310 310 311 312 312
311 316 310 310 313 313 311 310 319 320 320 321 323 321 322 329 327 326 325 327 325 324 327 326 320 319 319 317 317 317 318 320 323 322 321 322 321 319 315 314 311 311 310 309 309 309 311 310 309 309 311 310 310 310
316 313 311 309 311 313 316 314 318 321 322 322 322 322 325 327 329 327 325 326 327 326 327 326 326 323 322 321 320 324 319 321 322 322 321 321 319 317 314 313 311 310 309 310 309 310 310 309 309 310 310 309 308 308
308 307 308 309 309 310 315 320 320 322 322 322 322 323 323 326 332 331 330 328 326 328 327 328 326 327 327 324 326 325 319 321 323 322 321 320 317 314 311 311 310 310 311 310 308 309 309 309 308 308 308 306 307 306
308 308 307 309 307 313 318 321 322 325 323 325 324 325 326 330 330 330 330 330 327 327 327 326 326 328 326 324 324 323 322 319 320 322 320 316 314 312 312 311 311 311 310 308 307 308 307 308 308 307 307 307 307 306
311 313 314 314 311 312 315 320 323 324 323 324 324 325 327 329 329 333 331 333 332 331 329 327 327 329 324 321 321 326 321 319 320 319 320 317 314 312 310 309 308 309 310 308 308 307 307 308 309 309 308 308 308 306
314 313 314 317 319 320 321 320 321 322 323 324 325 325 325 325 328 329 329 331 330 330 329 328 329 327 326 327 326 322 321 316 313 310 310 312 312 312 311 310 310 310 309 308 307 308 307 307 306 307 307 308 307 308
313 314 314 317 322 319 319 320 323 323 323 325 325 325 324 323 325 328 327 331 331 329 328 329 331 327 327 327 324 322 318 315 315 313 309 309 311 310 309 307 307 309 309 308 307 308 307 305 306 306 306 305 307 305
314 315 319 319 321 319 320 323 324 325 325 325 325 327 328 332 328 328 331 330 329 325 323 328 328 327 326 325 324 321 316 313 314 311 308 310 309 308 309 308 307 309 309 308 307 307 307 307 306 305 306 305 306 305
315 312 314 310 322 325 324 321 323 324 325 325 327 329 333 328 330 330 331 330 329 327 327 328 328 326 326 325 323 320 316 314 314 312 310 309 310 309 307 307 308 307 308 308 308 307 307 307 306 306 304 303 303 304
317 318 315 319 319 319 320 322 326 327 327 327 330 327 326 327 329 328 330 328 326 325 324 327 329 327 326 324 322 318 315 313 312 312 310 309 309 308 308 309 309 307 307 307 307 307 306 306 305 305 304 303 302 303
317 321 322 321 320 321 322 324 324 323 325 327 331 330 329 330 329 330 328 325 323 323 323 323 326 324 324 322 319 316 313 311 311 310 309 308 308 308 308 309 309 309 307 306 306 306 306 306 306 305 305 305 304 304
320 321 322 322 323 322 322 322 320 322 323 327 330 330 329 328 332 329 325 323 323 324 324 325 323 321 320 314 313 311 310 309 309 309 308 308 307 307 307 307 307 307 306 306 306 306 306 306 306 306 305 305 305 304
320 320 322 323 323 323 323 321 321 321 321 324 329 328 327 328 322 322 324 325 325 323 322 322 320 315 313 311 311 309 308 308 307 309 309 307 307 305 306 306 306 306 306 305 305 304 305 304 304 304 304 305 304 304
320 320 322 322 322 323 322 321 320 319 319 319 326 328 327 323 319 319 319 318 321 322 321 321 320 314 311 309 308 308 307 307 307 307 309 309 308 306 305 306 306 305 306 304 303 302 302 303 303 303 304 305 305 305
320 321 322 322 321 321 321 320 320 320 319 322 327 328 327 325 322 320 316 315 314 312 312 310 309 310 309 309 308 308 308 307 308 307 308 309 308 307 305 306 306 305 305 306 304 303 303 302 302 303 305 306 306 305
322 322 321 322 322 322 322 321 320 320 325 327 325 324 325 329 326 322 316 314 315 314 313 312 310 310 308 308 308 307 308 309 308 307 309 308 307 306 306 306 305 306 306 307 306 305 305 304 305 306 306 306 306 306
322 320 320 321 322 322 321 322 321 325 326 325 325 327 327 328 324 321 317 315 316 316 315 313 311 310 309 309 308 308 308 309 309 309 309 306 307 307 306 306 305 305 306 305 305 305 305 305 306 305 305 306 306 306

GFSWCAN_925_thetae_090.txt.gz
Theta_e
310 310 311 312 312 314 315 318 306 306 308 309 311 312 313 313 313 318 322 322 319 317 318 316 317 317 315 313 315 313 316 314 312 318 321 320 319 319 319 323 323 322 318 320 319 322 324 323 324 327 323 321 325 322
310 311 310 312 312 314 314 317 310 305 307 308 310 312 313 313 312 316 320 320 321 317 319 318 317 317 317 317 313 312 312 312 310 314 317 317 317 317 316 319 318 321 319 324 324 324 320 318 319 319 318 321 320 321
312 312 311 310 312 314 315 317 314 305 307 307 308 310 312 312 312 313 320 322 321 317 317 313 315 317 318 318 318 316 314 314 314 311 313 317 319 315 314 314 319 316 315 323 322 322 320 318 316 317 317 315 315 317
313 314 313 311 311 315 316 318 315 305 307 307 308 308 311 311 311 311 316 320 321 319 319 317 318 318 317 318 317 318 315 316 311 307 309 314 316 315 317 315 314 315 315 312 318 319 319 319 316 315 317 316 314 313
313 314 314 314 311 315 316 318 314 305 307 308 309 309 309 311 312 313 317 319 318 320 321 321 317 318 318 317 318 318 318 314 314 315 315 319 315 316 315 315 319 317 318 316 317 316 315 316 317 315 315 315 313 312
312 313 313 314 312 315 316 317 309 306 307 309 309 309 311 313 317 321 319 321 318 316 319 323 316 317 319 318 318 318 316 313 313 315 316 315 312 315 312 315 318 316 315 314 317 316 316 316 317 315 314 313 312 310
311 312 312 313 312 315 317 317 305 306 307 309 311 312 313 313 316 319 320 320 318 315 321 322 319 320 319 318 316 314 316 314 314 314 314 313 312 312 311 310 317 314 317 316 315 315 316 315 314 313 314 313 314 312
312 312 312 311 313 315 316 313 305 306 307 308 312 314 314 315 318 321 321 317 316 320 320 322 325 321 319 317 318 314 316 314 313 313 312 311 309 308 309 310 312 314 315 314 314 314 314 315 315 313 313 313 311 311
312 312 311 311 314 315 315 308 305 306 307 307 311 315 316 319 321 321 318 315 318 321 323 321 323 322 318 319 319 316 314 317 313 314 314 310 308 308 308 309 314 317 315 314 314 313 313 315 315 314 314 313 311 310
312 312 312 314 315 315 314 306 306 306 307 308 312 320 321 324 320 319 321 319 319 319 319 324 319 323 318 318 318 317 315 316 317 315 311 311 309 308 308 308 312 314 314 312 314 314 314 315 314 314 314 314 313 312
313 313 313 314 314 313 307 305 305 309 313 316 319 320 320 321 322 320 323 325 322 324 318 318 316 322 315 319 320 316 317 316 316 316 315 315 314 316 313 313 313 314 314 311 312 311 312 312 312 312 311 314 314 313
313 313 313 312 307 305 305 305 306 310 317 314 313 314 317 320 317 324 324 325 323 323 321 320 318 315 316 313 316 319 320 317 320 315 316 313 314 314 315 316 314 312 313 313 313 313 313 313 313 312 311 312 314 313
306 308 308 305 308 309 310 309 309 308 309 317 318 322 321 321 319 326 329 326 324 322 321 320 322 316 315 314 316 316 319 318 317 318 315 313 314 315 312 312 312 313 314 314 315 315 314 314 314 314 313 313 313 313
306 305 308 309 306 308 310 310 310 312 311 317 321 315 323 324 325 324 325 323 321 320 320 319 318 315 314 316 315 319 316 317 319 316 318 315 314 314 311 313 311 311 310 311 313 313 314 314 314 314 313 314 313 313
308 310 309 310 307 307 308 308 308 309 317 321 320 317 323 322 324 324 321 323 320 314 313 314 315 313 315 318 316 315 319 319 317 316 314 314 312 312 312 310 309 309 309 309 309 309 310 310 310 309 311 311 311 312
308 313 309 308 308 308 307 307 309 314 319 319 318 319 318 322 327 324 323 323 319 313 313 314 318 317 319 317 318 318 316 316 312 312 312 313 312 310 310 310 309 309 308 308 308 308 308 308 308 308 310 309 309 310
312 314 310 310 310 313 313 310 317 319 320 320 318 315 315 316 323 322 322 322 320 317 319 320 320 316 311 312 313 313 312 311 316 314 314 313 312 311 308 309 308 308 307 307 308 309 308 308 309 309 308 308 309 308
313 313 311 310 310 314 315 313 315 319 321 318 317 315 316 317 320 320 320 320 322 319 321 322 317 317 316 318 318 314 312 315 315 315 315 313 312 311 310 307 308 308 307 308 309 308 308 307 307 307 308 307 306 305
309 307 306 306 308 308 312 317 317 320 319 317 316 316 317 318 324 323 323 322 323 323 319 319 322 320 318 316 318 318 316 316 318 315 313 314 313 312 309 309 309 307 308 307 308 308 308 307 307 307 306 306 305 306
310 309 308 307 307 311 315 316 320 321 323 318 316 316 318 320 322 322 322 322 321 322 326 321 319 317 319 318 318 318 314 315 317 316 314 312 313 310 309 309 308 310 308 308 307 307 307 307 307 306 306 306 305 305
312 312 313 313 312 308 310 314 318 319 318 318 317 319 319 321 322 322 325 323 324 324 325 323 321 318 320 319 319 318 317 317 318 316 316 311 311 310 309 310 310 309 306 306 306 306 307 307 307 308 307 307 306 305
313 312 313 315 316 317 313 316 315 316 316 317 317 318 320 319 318 319 325 325 324 323 322 322 322 322 321 320 319 320 320 314 314 315 315 312 308 307 307 308 307 306 307 306 306 306 306 307 307 308 308 307 307 307
313 314 313 316 320 315 315 319 321 320 321 319 319 321 320 318 321 321 325 324 324 321 323 325 326 326 322 323 322 319 314 311 308 308 311 312 311 310 309 308 308 306 305 307 307 307 306 306 305 307 306 306 306 305
313 313 316 317 315 314 318 320 319 320 321 321 322 324 325 324 322 324 326 325 323 322 321 322 323 322 321 319 318 316 314 311 310 307 308 308 308 308 309 307 307 308 308 307 307 307 307 307 305 305 306 305 306 305
314 312 310 306 316 323 324 322 320 322 322 321 323 326 328 324 327 327 326 327 324 323 323 323 321 321 320 319 317 318 316 313 310 306 307 308 307 307 306 307 309 309 308 308 306 307 307 307 306 306 304 303 304 304
314 317 312 317 317 320 320 321 324 324 324 324 326 324 321 324 329 329 326 325 325 324 323 322 324 325 324 320 319 318 318 314 312 308 308 309 308 307 305 304 306 307 308 308 308 306 306 306 306 304 303 302 302 304
315 318 317 315 318 319 320 320 321 322 321 324 325 327 326 327 329 327 325 322 322 323 323 323 322 322 323 323 323 320 317 314 313 310 309 309 308 308 307 306 306 307 307 308 307 307 306 305 304 304 304 303 303 303
316 318 320 319 321 321 321 322 321 318 321 326 326 327 327 327 327 323 321 323 323 324 324 323 322 317 320 319 318 310 308 309 309 309 309 308 307 307 308 308 307 308 307 306 306 306 306 306 305 305 305 304 305 304
316 317 318 320 320 322 321 321 320 316 316 322 324 324 324 324 322 321 322 320 319 320 323 319 314 313 311 309 308 309 309 309 308 307 307 305 303 305 306 307 306 306 306 306 306 305 305 305 305 305 305 305 304 304
316 315 319 320 322 322 320 317 316 315 314 314 322 322 322 320 320 320 317 315 317 318 315 320 317 308 307 307 307 307 308 308 308 307 304 305 306 307 306 306 306 306 305 305 305 304 304 304 303 303 303 305 305 304
316 317 318 319 320 319 319 316 316 317 318 323 322 322 322 319 320 319 315 315 311 311 310 309 310 308 307 307 307 307 306 307 309 309 308 307 308 308 308 306 306 305 305 305 304 302 302 302 303 304 304 305 305 305
319 320 321 321 321 319 318 318 318 323 323 323 323 322 323 324 325 320 315 316 315 313 311 310 309 309 308 308 308 308 308 308 308 308 308 308 307 306 306 306 306 305 305 304 304 304 303 303 302 302 303 304 304 306
320 319 319 319 318 320 324 326 325 324 322 323 323 324 326 324 322 317 316 316 316 315 312 309 308 308 308 308 308 308 308 308 308 308 309 309 307 306 305 305 306 306 306 305 306 304 304 304 304 304 304 305 306 306

GFSWCAN_925_thetae_093.txt.gz
Theta_e
310 310 310 310 311 311 313 314 315 305 307 307 310 312 313 312 312 318 321 321 318 315 315 316 316 315 314 311 313 311 314 311 312 317 319 317 317 317 317 321 321 320 317 322 316 321 326 321 322 321 320 323 328 327
310 311 311 311 310 311 312 313 316 307 306 307 308 310 312 312 311 317 320 321 321 315 317 318 316 317 317 314 311 310 312 311 310 314 315 313 314 314 314 319 317 319 318 323 321 322 319 318 318 317 319 320 321 322
311 312 312 313 312 311 312 314 316 308 306 307 308 308 310 311 311 313 318 319 320 314 312 312 314 317 317 317 318 315 312 311 311 308 311 314 317 311 312 314 317 314 314 321 319 320 319 317 316 315 319 318 319 320
312 313 314 314 314 312 312 314 316 310 306 307 308 308 309 311 311 311 317 317 319 316 314 314 317 316 316 317 318 317 314 312 307 305 309 312 315 312 314 314 314 317 314 313 316 318 318 317 315 315 314 315 317 317
311 311 311 313 314 313 312 313 315 308 306 308 309 309 310 311 313 317 319 317 316 318 320 316 316 316 317 318 317 318 316 312 311 314 315 316 311 313 312 313 317 315 317 316 317 315 313 315 315 315 314 314 313 314
311 310 310 312 314 313 313 314 315 306 306 308 310 311 312 313 316 321 316 320 317 317 318 318 314 316 317 318 317 316 314 311 310 314 313 312 310 312 309 310 315 314 313 311 315 315 314 314 312 313 313 312 311 312
311 310 311 312 313 312 314 314 314 305 306 308 310 312 313 314 316 318 319 320 318 317 319 318 317 317 317 316 314 312 314 311 312 310 312 311 309 309 308 309 315 314 313 315 314 314 315 314 314 312 313 313 312 312
313 312 312 312 312 312 314 316 309 306 306 307 309 313 314 316 319 321 320 315 315 320 317 319 321 318 317 316 319 311 313 311 311 310 309 309 305 307 306 309 311 312 313 313 313 312 312 313 314 314 313 312 310 309
312 312 311 311 311 313 314 315 305 306 306 307 309 315 317 320 320 321 318 315 318 321 321 318 320 321 315 316 316 314 310 316 310 312 312 308 306 303 308 308 312 314 313 313 312 312 313 314 314 313 314 313 310 308
312 312 311 312 314 314 314 309 305 306 307 308 312 321 320 322 319 317 318 315 317 316 316 319 315 320 316 315 316 315 311 314 315 313 309 309 307 306 305 305 309 313 314 311 313 312 313 313 312 313 313 312 312 312
313 313 313 314 314 314 310 306 305 308 315 317 317 318 318 319 321 317 320 323 320 323 318 319 315 319 313 319 319 313 314 313 313 314 313 312 311 312 311 308 307 308 310 311 310 310 310 310 310 310 310 311 312 313
313 313 313 311 306 305 306 306 306 309 316 313 313 314 316 317 315 322 322 321 321 322 317 318 316 313 313 310 316 315 318 315 319 313 313 310 312 311 313 311 311 311 312 312 311 311 311 312 312 311 310 310 312 312
305 309 308 305 307 308 310 309 309 308 308 316 317 320 317 318 318 324 327 324 321 319 318 317 320 313 312 311 313 313 318 317 313 316 313 312 309 312 312 312 312 312 312 312 314 313 313 312 312 312 311 312 312 312
306 307 307 310 306 307 309 309 309 311 311 316 320 313 321 321 322 321 322 321 319 319 317 316 316 314 312 314 312 318 314 316 319 315 316 312 311 312 310 309 310 310 311 311 311 313 313 313 312 312 312 312 312 312
308 310 309 309 308 306 307 308 308 309 316 320 319 319 322 320 319 321 319 319 318 314 316 315 312 312 313 316 314 315 318 319 316 315 311 310 310 310 309 309 307 308 307 307 308 308 309 309 309 309 309 309 309 309
307 311 308 310 308 308 307 307 309 313 317 317 318 319 316 318 321 323 320 320 314 311 311 312 315 315 318 316 318 317 314 314 312 310 309 308 310 309 309 307 307 308 307 308 307 307 307 307 306 306 309 308 308 309
310 313 309 309 310 312 313 311 316 317 319 319 318 313 314 314 315 321 320 320 314 314 317 315 317 315 310 312 312 312 313 310 308 309 309 310 310 308 307 307 307 306 305 306 306 307 307 307 308 307 306 307 306 306
313 312 311 310 311 313 314 313 313 317 320 317 316 314 313 313 314 316 317 317 319 315 316 319 314 314 313 313 313 310 310 310 311 310 311 309 308 308 308 305 306 306 305 306 307 307 306 306 306 306 306 305 305 305
310 309 307 307 306 307 309 314 314 317 317 315 313 313 314 314 312 316 317 319 319 318 319 316 318 318 316 312 314 314 312 314 314 313 312 311 310 308 307 307 307 305 306 307 307 307 306 306 306 305 305 304 305 306
309 310 310 308 306 309 313 313 317 317 320 317 313 314 314 314 316 318 320 318 318 320 321 319 318 316 315 315 313 314 314 313 313 314 312 309 310 309 307 307 306 306 306 306 307 306 306 305 305 305 306 305 304 305
311 311 311 311 312 308 308 310 314 317 316 317 314 316 317 316 318 319 320 318 324 322 323 319 317 316 315 316 316 315 312 314 315 316 316 311 310 308 307 307 307 307 306 305 304 305 306 306 306 306 306 306 306 305
312 312 313 313 314 314 310 311 311 313 314 313 314 314 316 317 315 315 317 323 322 322 319 319 319 320 319 319 319 317 318 316 316 315 314 314 309 306 305 307 306 306 304 305 305 305 306 306 306 306 307 307 307 307
312 313 313 314 317 313 314 316 320 318 320 316 315 318 317 316 314 317 321 320 320 317 319 320 322 324 322 322 321 320 319 315 311 312 312 313 313 310 308 307 307 307 305 305 307 307 306 306 306 306 306 307 306 306
312 313 314 314 313 312 316 318 317 317 318 319 320 322 321 322 318 320 323 320 318 317 317 318 319 321 320 319 317 315 312 310 308 312 313 310 308 307 308 307 307 308 308 306 306 306 306 305 305 305 306 305 305 305
314 310 310 306 314 321 321 321 319 320 321 320 322 322 326 320 322 324 323 320 321 320 322 321 319 320 320 318 317 316 313 309 306 305 309 310 310 308 308 308 307 308 307 307 306 306 306 305 305 305 304 304 304 305
312 315 311 314 315 320 322 322 324 322 321 321 321 321 320 321 325 325 324 321 321 321 320 320 320 321 322 321 319 318 317 314 307 305 306 308 310 308 304 302 303 306 306 307 307 306 306 306 306 305 305 304 302 304
313 315 314 311 314 316 316 316 319 321 320 322 323 324 322 324 326 325 322 320 319 321 323 323 322 321 321 322 323 323 323 319 311 308 308 308 309 308 308 305 305 308 308 307 307 307 306 306 306 305 304 302 301 303
314 314 318 318 317 320 321 320 322 318 317 323 322 324 326 326 324 321 319 321 322 320 319 322 323 320 318 318 320 318 313 313 309 309 310 309 308 308 307 307 307 307 308 307 308 307 307 307 306 305 304 302 303 303
313 313 315 318 317 318 320 322 319 316 313 319 320 322 321 320 318 318 320 317 315 317 314 316 313 310 314 314 310 311 310 310 311 310 308 305 304 306 306 307 307 307 307 307 307 307 306 306 306 304 304 304 304 304
313 311 314 317 319 321 318 316 315 313 312 314 318 319 318 317 319 318 315 314 312 309 309 312 312 307 306 308 307 309 311 312 310 308 307 306 304 306 305 306 306 306 305 305 305 305 305 305 305 304 304 304 304 304
311 312 314 316 317 316 316 315 316 317 320 320 319 319 318 317 319 320 316 315 313 311 308 309 307 307 307 307 308 307 307 309 310 309 308 308 308 308 307 306 305 305 305 305 305 304 304 303 303 303 303 304 304 304
313 315 317 319 318 318 316 317 318 321 321 320 320 320 320 321 322 315 315 315 314 309 308 307 306 307 307 307 309 309 308 309 307 308 307 308 308 307 307 307 306 305 305 305 305 302 302 302 303 303 303 304 304 304
317 318 318 317 318 317 319 321 321 321 319 319 319 321 322 322 318 315 316 315 315 314 309 308 308 308 308 308 308 308 308 308 308 308 308 308 308 307 306 306 306 305 305 305 305 304 302 302 302 302 302 302 303 304

GFSWCAN_925_thetae_096.txt.gz
Theta_e
311 310 310 310 311 310 310 311 313 313 305 307 308 310 311 311 313 319 319 320 318 311 312 314 315 314 312 310 312 310 312 310 310 316 317 315 314 315 318 320 320 319 316 320 316 321 326 320 321 325 320 321 327 327
312 310 311 312 312 311 310 311 312 314 305 306 307 308 310 311 311 317 319 318 320 314 314 317 315 315 315 314 310 308 311 310 310 313 312 311 312 312 312 318 317 321 317 321 317 319 317 317 318 318 319 323 324 323
311 311 312 313 313 313 312 311 313 314 306 306 307 308 309 310 311 315 318 317 319 312 311 311 313 316 315 316 315 314 310 309 309 306 310 310 315 308 309 312 316 315 312 319 318 318 318 317 316 317 319 321 322 322
311 311 311 311 312 313 313 311 313 314 307 306 308 308 308 310 311 313 317 316 318 313 312 313 316 315 316 317 317 315 311 309 305 305 309 309 314 309 312 312 315 316 314 315 317 317 317 316 315 314 317 319 320 321
311 310 310 310 310 313 313 311 313 315 306 306 308 309 310 312 313 317 317 317 316 317 317 314 314 315 316 317 317 317 313 310 310 315 314 314 309 311 309 312 315 314 315 317 319 314 314 314 314 314 316 316 317 317
311 312 311 310 310 312 313 312 314 314 305 307 309 311 312 313 317 320 314 319 317 317 316 316 313 315 316 316 316 314 312 308 309 312 311 309 308 310 307 307 313 312 311 310 315 314 312 313 312 312 313 313 313 314
312 313 312 310 311 312 312 314 314 310 306 307 308 311 313 314 316 318 317 319 318 316 317 317 316 315 316 314 311 310 311 308 310 308 310 309 308 306 306 310 314 313 312 313 313 313 315 314 314 311 312 312 311 312
312 312 312 312 312 312 312 315 315 306 306 306 307 311 314 315 318 320 318 315 315 320 315 317 318 316 315 314 315 309 312 309 309 308 306 307 304 306 307 308 311 312 312 313 313 311 311 312 313 313 312 311 311 311
312 311 311 311 311 311 313 315 313 305 306 307 308 313 316 319 320 320 317 315 318 320 319 317 319 320 313 314 312 312 308 314 308 310 310 307 307 303 307 308 311 312 311 311 311 311 311 312 312 312 313 312 311 310
312 312 311 311 312 314 314 315 306 305 306 308 312 320 319 320 317 316 317 312 316 315 314 316 313 318 314 313 314 314 309 312 314 311 306 308 307 305 304 305 309 311 310 308 312 313 311 311 311 312 312 311 311 311
313 312 313 313 314 313 312 306 305 307 315 317 317 317 316 318 320 315 319 321 318 323 316 317 314 318 312 319 320 311 312 310 312 312 313 310 311 310 309 306 304 308 310 310 309 310 308 308 309 310 310 310 310 311
311 312 312 309 306 306 307 306 306 309 315 313 314 314 317 315 314 321 320 319 320 321 315 316 315 312 312 309 315 312 316 313 318 311 312 309 311 309 311 309 308 307 308 311 312 311 310 310 311 310 309 310 310 311
305 307 308 306 307 308 309 309 308 308 308 316 317 319 316 316 317 322 325 323 320 317 315 314 316 312 310 309 312 313 317 316 311 315 312 311 309 308 310 310 310 310 311 312 312 312 311 311 311 311 311 311 311 311
306 307 307 307 308 306 309 308 309 310 310 314 318 312 319 320 320 319 319 319 317 317 315 314 314 313 310 313 311 316 313 315 318 316 316 311 310 309 309 309 309 311 310 310 311 312 312 311 312 311 311 311 311 311
306 309 309 309 309 307 307 307 307 308 315 317 318 317 321 318 317 318 317 317 316 313 313 312 311 310 311 314 312 313 318 319 317 315 311 309 308 308 309 308 308 308 308 307 308 309 309 309 308 308 308 308 308 307
307 310 308 310 309 308 307 307 308 311 315 314 315 319 315 317 316 318 318 319 311 310 309 311 313 314 316 314 317 317 318 316 313 310 309 306 308 308 308 308 307 307 307 307 306 307 306 306 306 306 307 307 307 307
309 312 308 309 309 311 312 312 314 315 317 318 316 312 313 314 315 315 318 318 310 314 316 312 316 317 310 315 316 313 313 311 309 307 305 307 309 308 307 307 307 307 306 306 306 306 306 306 307 306 305 305 305 305
312 312 311 309 309 311 313 313 311 316 320 317 316 311 311 313 312 313 319 315 312 312 316 318 314 312 312 312 310 308 307 306 306 308 308 307 307 308 308 306 307 306 306 306 306 306 306 306 305 305 304 304 304 305
310 310 308 308 306 307 307 312 312 314 315 313 312 311 312 313 310 311 312 314 315 313 314 317 320 316 314 310 311 312 311 309 312 311 309 309 309 307 307 307 306 305 305 305 306 305 305 305 305 304 304 304 304 304
309 311 310 310 307 307 311 311 314 315 317 316 311 312 311 312 311 314 316 316 317 318 319 318 317 315 313 313 310 313 314 311 311 313 312 309 307 307 305 305 304 305 305 305 305 305 305 304 304 305 305 304 304 304
311 311 310 309 309 307 306 307 311 314 315 315 312 314 315 314 316 317 317 314 319 320 320 317 317 317 313 313 314 314 312 313 314 316 315 311 307 307 305 305 305 304 304 305 304 305 305 305 304 304 305 305 305 305
311 311 312 312 313 313 308 309 308 309 312 313 312 312 314 316 315 313 314 320 320 320 317 317 316 316 317 317 316 316 318 315 315 314 313 312 306 306 306 305 305 304 304 305 305 305 305 305 305 305 305 306 306 306
312 312 312 313 316 313 312 314 318 317 318 317 314 317 316 314 312 314 318 316 317 314 317 317 319 321 319 321 320 320 319 317 314 314 313 313 312 310 308 306 307 306 305 305 306 306 305 305 305 305 305 305 306 306
312 312 314 311 310 309 313 317 316 317 316 318 318 321 318 318 316 318 321 318 316 315 316 316 317 317 317 317 317 317 317 315 313 312 312 312 310 308 308 307 307 308 308 307 306 306 306 306 305 305 305 305 306 305
313 312 310 308 313 319 319 320 319 320 321 319 320 320 321 319 321 322 322 318 317 318 317 318 317 317 318 318 318 317 313 309 308 309 310 311 309 306 306 307 307 307 308 307 305 306 306 306 305 305 304 304 304 304
310 310 310 313 313 317 320 322 323 321 320 320 318 319 319 320 323 323 321 320 320 319 319 318 319 320 319 319 319 317 314 308 308 307 307 309 308 308 307 304 304 305 306 307 307 306 306 306 305 304 304 304 304 304
314 314 313 309 311 313 315 314 316 320 321 321 323 323 321 323 324 322 318 317 318 318 321 321 320 320 320 319 321 321 318 310 307 308 308 311 312 311 309 306 305 307 308 307 306 307 306 306 305 305 305 305 305 304
312 312 315 315 314 317 320 319 319 321 318 319 321 323 325 324 323 318 317 320 318 316 317 316 317 317 319 319 318 320 313 310 308 308 310 312 312 308 306 307 307 306 306 307 307 307 307 306 306 305 305 305 305 303
311 311 312 315 315 315 318 319 319 316 312 317 318 320 320 317 317 317 318 316 312 311 309 309 311 310 312 313 313 313 309 309 310 310 310 309 307 309 309 308 307 306 306 306 307 307 307 307 306 306 306 305 305 303
311 309 312 313 316 318 317 316 317 314 313 316 317 318 317 316 318 317 314 313 311 310 308 308 309 309 307 309 309 308 309 310 311 310 309 308 306 309 306 306 306 306 306 305 306 306 307 306 306 305 305 304 303 303
310 309 312 313 315 314 315 315 314 317 318 318 317 318 318 316 317 319 316 314 312 311 307 308 306 306 307 307 307 308 308 310 310 310 310 308 308 306 306 306 306 306 306 306 305 305 305 305 304 304 304 303 303 304
311 313 315 316 316 315 315 316 316 320 318 318 318 317 319 319 319 315 315 314 313 309 307 306 305 305 306 308 308 309 309 309 309 308 308 308 307 307 307 307 306 305 305 304 304 304 304 303 303 303 304 304 304 304
313 314 314 315 317 317 316 319 319 319 317 318 319 319 320 321 316 312 315 315 314 313 308 307 307 306 307 308 308 308 307 307 308 308 307 307 308 308 307 306 306 306 305 304 304 304 302 302 302 302 303 303 303 304

GFSWCAN_925_thetae_099.txt.gz
Theta_e
313 311 312 311 311 311 311 310 311 313 309 306 307 308 310 310 311 317 319 318 318 318 317 316 316 318 316 316 320 317 318 317 319 325 326 326 328 326 325 324 324 325 323 326 324 327 327 324 325 328 326 327 333 332
312 313 311 311 312 312 313 311 310 312 314 306 307 308 309 310 311 315 318 318 319 319 319 316 314 314 314 316 318 314 318 317 318 323 322 321 325 320 322 330 320 328 323 330 325 327 323 322 323 322 323 326 330 330
312 312 311 311 311 312 313 313 311 312 314 306 307 308 308 309 310 314 317 317 318 320 318 317 317 315 315 315 314 320 316 314 316 313 319 320 324 319 326 325 320 319 318 325 325 322 322 322 321 322 323 325 326 326
312 312 310 309 310 310 311 313 311 312 314 306 307 308 308 310 311 314 316 316 318 316 320 319 316 315 315 316 316 314 313 310 311 314 318 319 323 316 321 320 321 321 320 323 324 321 320 319 319 318 324 325 325 324
312 311 311 311 311 309 310 313 311 312 314 306 307 309 310 311 312 316 318 317 317 320 322 320 315 314 315 316 316 315 316 318 319 322 322 322 318 320 318 320 323 320 322 326 326 320 321 320 318 316 322 324 324 323
312 312 312 312 311 310 311 313 311 313 313 306 308 310 311 312 315 318 321 318 317 317 322 321 316 317 316 316 317 317 316 317 318 321 320 317 313 318 325 327 321 319 318 316 321 318 317 317 317 316 316 318 320 321
311 312 312 312 310 311 312 312 312 314 308 306 307 308 312 313 316 320 321 319 318 317 325 322 322 319 317 316 316 318 316 316 318 318 320 319 316 316 321 327 322 319 318 317 316 318 319 318 318 316 315 315 315 317
311 311 312 312 312 312 312 312 314 314 306 306 306 308 312 314 316 319 316 315 314 320 320 323 324 321 316 320 322 315 320 318 316 317 315 317 313 312 321 318 319 318 317 317 317 316 316 316 316 317 316 315 315 316
312 312 311 310 311 311 312 313 315 309 305 306 307 310 315 318 321 319 316 315 318 321 328 325 327 327 318 321 319 319 317 324 315 320 319 316 313 317 318 317 320 318 318 318 315 315 314 314 316 316 316 317 317 316
313 312 312 311 311 311 313 314 314 305 305 308 310 320 324 320 316 316 316 318 320 322 321 325 319 325 321 322 322 322 318 322 324 319 314 319 320 315 313 315 319 318 316 316 316 316 313 314 314 315 316 316 316 316
312 312 313 312 312 312 313 311 305 305 312 314 320 322 316 317 319 320 326 324 324 328 324 324 322 325 318 324 324 318 322 320 324 320 321 321 322 318 316 314 316 317 316 315 315 315 314 313 314 314 314 314 314 314
306 310 311 308 306 306 307 306 306 309 315 315 316 314 317 319 320 325 326 324 326 328 323 324 322 320 319 317 322 319 323 321 323 318 321 324 320 319 317 315 315 314 316 316 315 317 315 314 314 314 314 314 314 314
305 306 309 306 306 306 308 308 308 312 310 315 318 321 321 320 322 323 327 329 328 323 321 319 322 319 317 318 320 321 322 321 318 323 325 321 319 318 318 317 315 314 314 315 316 316 315 314 314 314 314 314 314 314
305 308 307 307 308 306 307 307 309 309 310 319 321 311 322 324 324 324 324 326 324 322 321 321 320 321 318 320 319 321 319 321 323 323 322 321 323 320 318 318 316 315 315 316 316 316 316 315 314 314 314 314 314 313
305 307 309 309 309 309 307 307 306 309 314 319 322 321 324 322 322 323 321 322 322 320 319 319 318 319 319 320 319 320 322 323 323 322 320 320 322 319 318 317 317 316 316 316 315 315 315 314 314 312 310 310 310 310
305 308 308 309 309 308 308 307 307 310 315 317 319 323 321 321 322 323 323 325 320 319 318 320 320 321 321 320 321 322 322 323 321 321 320 318 319 318 318 317 316 315 315 313 312 312 311 310 309 309 309 309 308 309
306 311 309 308 309 310 310 311 313 317 317 319 319 318 319 319 320 320 322 325 318 320 325 322 323 322 318 322 322 321 322 320 319 318 316 317 320 320 317 316 314 314 313 311 310 309 309 308 308 309 309 308 307 306
308 310 310 307 307 310 312 312 313 318 321 320 319 317 317 318 318 318 323 319 320 321 319 322 319 319 320 321 320 318 318 319 318 317 316 315 316 316 315 315 313 312 312 310 310 309 308 309 309 308 307 306 306 307
309 310 308 308 308 306 310 314 313 314 316 317 318 317 317 318 317 317 318 319 318 319 320 320 324 322 322 319 320 320 319 317 318 320 317 316 315 314 314 314 312 312 311 310 309 308 308 308 307 306 307 306 307 306
309 309 311 310 309 307 311 313 314 319 321 320 317 317 318 318 317 317 319 320 321 323 326 324 324 324 324 325 322 322 322 320 316 318 321 318 312 312 313 313 312 311 310 309 308 307 307 306 306 305 305 306 306 306
311 311 310 310 307 307 309 311 316 318 320 321 319 319 321 318 319 322 323 322 326 329 329 327 326 325 326 322 319 318 319 319 322 325 327 319 311 311 310 310 309 309 308 308 308 308 307 306 305 305 305 306 306 306
310 310 310 309 313 313 313 312 312 313 315 318 317 317 319 320 321 321 320 327 327 328 326 327 326 326 327 328 326 323 321 321 320 320 316 313 311 312 309 309 307 308 308 308 308 308 307 307 305 305 306 306 306 307
311 311 311 313 317 314 314 314 320 320 321 321 318 320 320 320 318 318 322 322 324 323 323 325 325 324 325 324 323 323 323 322 322 320 318 316 314 311 309 307 307 308 308 307 307 308 308 307 305 306 307 306 307 308
310 312 314 314 313 311 315 319 320 321 320 322 322 323 321 322 322 325 327 326 326 323 325 325 324 326 325 324 325 324 322 321 321 319 316 314 314 313 310 308 308 308 307 307 307 307 307 306 306 306 306 307 307 307
313 312 312 308 315 318 320 322 321 322 323 322 323 324 326 324 328 328 328 327 324 326 326 325 324 325 326 326 325 324 318 314 316 318 315 316 315 310 309 309 308 308 309 307 307 307 307 307 307 306 306 306 306 307
313 313 313 316 317 319 321 323 324 323 322 322 322 323 324 326 327 327 327 327 326 325 325 324 325 324 324 325 325 325 323 312 310 313 311 312 311 309 309 309 310 309 307 307 308 308 309 308 307 307 306 306 305 305
311 315 316 314 315 316 319 319 318 320 322 323 326 326 326 326 326 327 325 323 325 323 322 322 321 321 322 321 323 323 317 312 309 311 309 310 312 315 313 312 312 309 307 308 309 309 309 309 307 307 306 306 306 306
314 314 317 318 318 317 319 320 322 323 322 323 325 324 323 324 326 326 325 322 320 315 315 315 314 315 316 317 319 315 309 307 309 311 311 311 311 311 311 310 309 307 307 308 308 309 309 309 308 307 307 307 307 306
312 314 315 317 318 318 320 320 321 323 318 323 324 323 324 323 322 323 321 318 313 313 312 312 314 312 313 315 315 315 310 310 311 312 314 314 314 312 308 306 306 305 306 307 306 307 309 309 308 307 307 307 307 306
313 313 316 315 315 315 317 319 322 319 317 318 320 322 323 322 320 317 315 314 315 314 311 309 310 312 315 316 314 313 313 312 312 312 314 314 313 312 309 308 307 306 306 307 307 306 305 306 306 306 306 306 305 305
312 313 314 313 313 314 314 315 316 317 320 324 322 323 323 320 319 318 317 314 313 311 309 311 311 310 312 314 314 313 313 311 310 311 311 310 309 309 308 306 305 306 306 306 306 306 306 306 307 307 307 307 306 305
314 315 316 317 316 315 314 315 317 321 323 323 323 322 324 324 322 321 315 314 315 312 308 309 310 309 308 309 310 311 310 311 311 310 310 309 308 308 306 306 305 305 305 306 306 306 306 306 306 306 306 306 306 305
315 315 315 316 318 320 318 322 324 323 322 324 324 325 324 323 320 318 316 314 315 314 309 309 307 307 307 307 309 309 309 309 307 307 308 307 307 307 308 307 307 306 305 305 305 305 305 305 305 305 305 306 306 306

GFSWCAN_925_thetae_102.txt.gz
Theta_e
319 318 314 312 311 311 311 312 312 311 312 308 306 307 309 310 311 316 322 320 324 322 321 320 320 321 321 321 321 322 321 321 320 321 323 326 327 330 328 326 326 326 326 326 326 326 328 329 328 332 333 329 333 336
319 318 313 313 311 311 311 312 313 311 312 312 306 307 308 309 310 315 322 320 320 324 322 320 318 317 318 319 320 321 321 320 321 322 322 324 328 324 327 328 325 330 328 328 329 331 328 328 330 330 330 330 333 335
319 316 313 312 310 310 310 310 312 312 311 313 306 307 308 309 310 314 320 319 323 322 320 321 321 319 318 318 318 321 321 321 322 321 321 321 323 320 323 325 325 326 323 328 328 326 326 325 326 330 331 331 331 331
317 313 313 312 311 311 310 310 311 312 311 313 306 308 308 309 311 314 320 319 323 322 322 321 318 319 319 319 319 319 319 317 319 321 321 320 321 323 321 325 325 326 325 328 328 325 324 324 324 327 330 330 330 329
313 312 312 312 312 312 311 310 311 312 311 313 306 308 310 311 312 316 320 319 320 324 323 322 319 319 319 320 320 319 320 322 321 322 321 321 323 324 323 323 322 323 326 327 328 326 327 325 322 323 327 329 329 328
313 312 311 311 311 312 310 310 312 312 312 313 306 308 310 312 314 320 320 320 319 321 324 321 321 320 320 321 321 321 320 321 322 323 323 323 321 324 325 327 326 324 323 324 326 323 324 322 321 320 323 325 326 327
313 312 311 311 312 312 310 312 312 312 314 310 306 308 310 312 316 321 321 321 318 320 325 321 324 321 320 321 321 322 321 321 321 322 325 324 323 321 326 329 326 324 323 322 322 322 323 322 322 320 319 319 320 323
313 312 312 311 311 312 312 312 312 313 313 306 306 307 311 313 315 319 320 316 316 323 325 324 325 324 320 324 325 322 323 322 321 321 320 321 320 321 329 323 325 323 322 322 320 320 321 320 320 320 319 319 320 322
312 312 312 311 310 311 312 312 312 314 307 305 306 308 315 318 321 322 318 316 320 324 325 325 326 326 322 324 324 323 322 322 321 322 322 320 323 322 320 320 324 324 323 323 320 318 317 318 318 318 318 318 320 320
313 312 312 313 311 311 311 312 314 311 305 306 310 319 324 323 318 317 319 321 323 323 325 328 325 326 324 325 325 324 322 320 324 323 320 323 324 320 320 319 322 323 321 320 319 319 316 315 315 316 316 316 317 318
310 312 311 312 313 312 313 313 313 305 307 313 320 325 320 318 321 323 325 323 322 325 324 324 325 325 324 325 324 323 322 321 326 324 323 322 321 320 319 319 322 321 318 317 316 315 314 315 315 315 316 315 315 315
305 307 310 310 307 306 307 307 305 306 317 318 320 317 321 324 325 327 325 325 326 324 326 326 326 324 325 324 323 324 322 322 323 322 323 326 319 322 319 318 320 319 318 317 316 315 314 314 314 315 315 315 315 316
305 306 307 310 306 306 307 308 307 309 312 316 320 323 324 324 325 324 326 327 327 326 327 325 326 325 323 323 322 321 322 321 321 323 326 322 323 323 321 318 319 318 318 317 316 316 316 316 317 316 316 317 317 317
305 308 308 308 307 307 307 307 308 308 310 320 322 317 323 324 321 321 322 324 326 326 325 324 324 323 322 322 321 322 321 321 323 322 320 318 322 323 322 320 318 318 318 318 317 317 318 318 318 318 317 317 317 317
305 306 309 308 309 309 308 307 306 309 315 319 321 325 320 320 323 324 324 326 326 325 325 324 323 323 321 321 321 322 323 324 323 320 318 319 322 323 324 322 320 318 318 318 317 318 318 317 317 316 317 316 314 312
306 307 309 308 311 309 308 307 308 312 315 316 320 324 324 324 323 325 326 327 326 325 324 324 324 323 322 322 323 323 322 323 321 321 320 322 327 326 325 323 322 319 318 317 318 318 317 316 315 314 313 312 311 311
307 311 308 309 309 309 308 310 314 316 315 316 316 316 320 323 324 326 324 327 325 325 326 325 325 324 323 323 324 323 323 322 322 322 322 324 327 328 325 323 321 320 319 319 318 316 315 313 312 311 312 311 309 310
308 309 308 308 307 310 313 313 315 316 318 316 317 315 318 318 321 322 323 325 326 326 326 325 324 324 324 324 324 324 323 322 322 322 323 323 327 324 323 323 321 320 319 318 316 315 313 312 311 311 311 310 309 310
309 310 308 308 309 310 314 316 315 315 315 315 318 318 318 318 318 319 322 324 324 325 325 324 324 324 324 323 324 324 324 325 325 325 324 323 322 322 322 321 320 319 318 316 315 314 312 311 310 309 308 308 308 308
308 309 311 310 309 310 313 314 317 319 317 318 318 317 317 316 316 319 319 321 323 323 324 326 327 325 325 324 324 325 326 326 325 326 325 324 321 319 320 319 319 317 316 315 314 310 310 310 308 308 307 307 308 307
309 310 311 311 309 310 311 313 317 318 320 322 322 323 322 321 321 319 320 323 326 325 327 326 326 325 325 326 328 327 327 327 327 326 326 326 322 318 317 317 316 316 316 314 311 310 310 308 307 306 306 307 307 307
310 311 310 308 312 315 317 316 315 316 319 320 321 321 322 323 322 321 321 325 325 325 325 325 324 326 327 330 330 330 329 329 328 328 323 322 324 321 319 315 314 315 315 312 310 309 309 308 307 306 306 307 307 308
309 311 311 313 317 317 317 317 320 320 320 320 320 320 320 320 320 322 322 322 322 323 325 327 328 329 330 328 328 328 328 328 329 327 327 325 323 319 316 316 312 311 311 310 309 310 309 308 307 306 306 307 308 308
310 312 314 315 317 317 318 322 322 323 323 323 323 323 321 321 324 324 321 320 320 325 328 331 329 329 328 330 330 328 327 326 325 325 325 324 322 316 311 310 310 311 310 309 310 309 309 309 307 306 307 308 307 308
313 315 316 317 318 319 320 321 321 323 323 322 323 322 325 329 327 327 325 324 326 327 328 329 328 328 328 328 327 327 327 325 323 324 323 322 321 318 312 311 309 309 308 309 309 309 309 310 308 307 306 307 307 307
314 318 316 318 319 319 319 322 323 323 322 324 324 324 327 326 323 325 326 326 328 327 327 327 327 327 328 327 327 327 326 324 319 318 318 319 318 312 309 310 310 311 309 309 309 309 310 310 310 308 307 307 306 307
313 317 317 317 318 318 319 320 320 321 324 323 324 325 325 324 325 323 328 326 327 326 324 322 321 322 322 321 321 322 322 321 317 315 315 315 311 310 311 311 313 311 310 309 310 310 310 310 310 309 307 307 307 306
314 315 317 318 318 318 320 321 322 322 322 322 323 323 324 323 325 328 329 325 322 319 317 317 316 317 317 318 319 316 315 315 313 313 312 311 312 313 314 313 311 312 312 310 310 310 310 310 310 309 308 307 307 307
314 314 315 317 317 319 319 320 320 321 321 322 324 323 324 324 325 326 323 320 318 317 317 316 318 317 320 319 319 315 312 313 314 315 315 316 315 314 314 313 312 310 309 309 309 310 311 310 309 308 308 308 308 307
313 313 315 315 317 318 319 319 322 321 320 320 321 322 323 326 323 320 319 318 317 316 314 313 315 317 318 317 318 317 316 316 315 315 316 315 315 314 312 310 310 310 309 310 309 309 309 310 309 309 308 308 308 308
314 314 314 314 314 314 315 316 318 319 319 320 323 325 324 324 322 322 320 318 316 315 313 314 316 315 318 316 316 316 315 314 315 315 314 312 312 313 312 311 310 309 309 310 310 309 309 309 309 309 309 309 309 308
314 315 316 317 317 316 314 315 317 319 322 325 325 326 326 328 323 321 320 317 316 314 311 314 316 315 314 316 316 315 312 313 313 313 313 312 312 312 311 308 308 308 309 309 309 309 309 309 309 309 309 309 309 309
315 316 316 318 320 321 320 319 322 323 324 325 326 326 324 322 322 320 319 317 316 314 313 312 312 312 312 312 313 314 313 312 312 309 308 309 310 310 309 308 308 307 308 308 308 308 308 307 308 308 308 308 308 308

GFSWCAN_925_thetae_105.txt.gz
Theta_e
323 321 320 319 315 313 312 311 312 313 312 313 311 307 308 309 310 315 326 324 328 325 323 321 320 321 322 322 323 325 322 323 320 321 323 325 325 328 327 325 331 327 330 331 328 333 336 329 330 335 335 332 333 337
323 321 320 319 314 313 311 311 311 312 313 312 312 307 308 309 310 313 325 322 324 327 324 320 320 320 320 319 321 322 322 324 321 323 323 324 326 324 326 326 326 325 329 333 331 334 331 330 331 332 331 331 333 336
322 321 319 317 313 312 311 311 310 311 313 312 312 307 308 308 310 312 322 322 324 324 321 321 322 320 320 319 319 322 323 322 321 322 324 323 323 322 323 323 325 326 326 324 328 328 328 328 330 332 332 331 332 333
321 319 318 314 312 312 312 312 312 310 312 312 313 307 308 309 311 311 322 322 325 326 323 324 321 321 321 321 320 319 320 320 320 321 322 322 321 322 323 323 324 327 327 326 328 326 326 326 327 330 332 332 331 331
319 318 313 313 312 312 312 312 312 310 312 312 313 307 308 310 311 313 321 321 323 327 326 324 321 321 321 322 322 321 321 322 323 323 322 322 323 322 321 322 322 323 325 331 330 330 328 327 325 326 328 331 330 329
316 313 313 312 312 311 311 311 311 311 312 312 312 307 309 311 312 318 320 319 322 324 328 322 323 323 322 323 323 323 322 322 322 323 323 323 325 322 324 325 325 326 325 327 328 326 326 325 323 323 324 326 328 329
312 313 313 311 312 311 312 311 311 312 312 313 309 307 308 311 313 320 324 322 320 323 325 323 324 324 323 323 324 325 323 321 321 323 324 324 324 320 324 329 325 325 325 325 324 325 325 324 324 322 322 322 323 327
312 312 311 312 311 311 312 312 312 312 313 313 307 307 308 312 314 317 320 319 319 323 324 324 327 327 323 325 325 325 324 323 323 323 322 323 324 323 332 326 324 325 325 324 324 324 324 324 323 323 322 321 323 324
312 312 312 312 311 310 312 312 312 313 313 307 306 307 314 317 318 321 319 318 321 325 324 322 326 329 325 324 326 326 323 323 324 322 323 321 327 328 321 322 323 325 325 324 323 322 321 321 321 321 321 321 321 322
309 312 312 312 312 311 311 311 313 313 307 306 309 318 322 321 322 319 318 321 321 321 326 329 325 328 325 326 325 325 324 323 323 325 323 322 328 322 321 321 321 324 324 323 323 321 320 319 318 318 318 319 320 321
305 308 311 311 312 312 312 313 314 308 305 311 319 324 323 320 320 322 323 322 321 322 323 322 326 327 325 327 326 324 325 322 323 326 322 324 323 323 321 320 322 323 323 321 319 319 318 317 317 317 317 316 316 317
304 305 307 309 306 307 307 312 311 307 316 317 320 322 322 322 323 323 324 323 324 324 325 324 325 326 326 324 324 324 324 323 324 325 323 326 323 324 321 320 322 322 319 318 317 317 315 316 316 316 316 316 316 317
304 305 307 307 306 306 306 307 306 309 314 319 320 324 323 322 329 325 325 324 325 324 326 326 327 326 326 324 325 324 323 323 323 322 326 325 326 323 321 320 321 319 318 317 317 316 316 316 316 316 317 317 317 317
304 305 308 307 307 306 307 307 308 309 313 323 323 327 323 323 320 321 321 322 323 325 327 326 327 326 324 324 324 324 324 323 323 324 324 320 326 323 322 320 320 320 319 319 318 317 317 317 317 317 317 316 317 317
305 305 308 308 307 309 308 307 307 310 316 320 321 328 321 320 321 321 321 325 328 326 326 325 325 324 324 324 322 323 325 324 324 323 321 324 325 324 324 322 321 320 320 319 318 318 318 318 318 318 317 316 316 316
309 306 309 309 309 309 308 306 308 312 315 316 319 321 320 321 320 322 324 325 325 326 325 325 325 324 324 323 324 325 324 325 324 322 322 326 326 324 326 324 322 320 319 319 318 318 318 318 318 317 317 315 314 313
310 311 309 309 310 310 308 309 314 316 315 316 317 316 318 321 322 322 324 324 325 326 326 324 327 326 325 325 325 325 325 324 324 324 325 328 327 330 327 326 323 321 321 320 319 318 319 319 318 316 316 313 312 312
308 310 307 309 309 310 313 313 314 314 315 317 317 317 317 317 321 324 325 328 328 326 325 325 326 325 326 326 326 326 325 324 325 325 325 326 328 330 327 328 325 323 322 321 320 320 320 318 316 314 313 313 312 311
309 310 308 308 310 312 316 315 315 317 317 316 316 317 317 317 318 321 324 326 327 330 328 328 328 327 326 324 324 326 326 326 326 327 325 328 329 328 327 325 325 324 323 322 321 319 317 316 314 311 312 312 310 310
308 309 310 309 310 313 315 316 316 316 316 316 316 317 318 318 318 319 323 325 328 329 328 326 326 325 325 328 327 326 326 327 328 329 326 325 324 328 327 325 324 324 322 321 319 316 315 313 311 310 310 309 310 310
308 309 310 311 313 312 314 315 317 318 319 320 320 321 321 319 318 318 321 321 325 327 327 326 326 325 328 328 326 329 329 327 327 326 325 324 322 323 325 324 323 322 321 319 319 314 312 311 310 309 309 308 309 309
309 310 310 310 312 314 316 315 317 319 321 321 324 323 324 324 322 320 319 321 324 325 325 325 325 327 329 331 328 328 328 329 329 329 328 327 329 327 327 325 323 322 321 319 315 312 312 310 309 308 308 308 307 308
309 311 312 312 314 316 318 318 322 320 321 321 321 322 322 322 322 322 320 320 321 323 324 324 327 329 331 327 327 329 329 330 331 329 328 328 328 327 326 324 322 321 320 316 312 310 311 309 307 308 308 308 308 309
309 312 315 316 317 320 320 322 322 323 322 323 322 324 322 322 324 323 323 323 321 319 320 328 327 326 324 331 330 329 328 328 328 327 326 327 329 326 322 319 316 314 312 310 311 310 310 308 309 307 308 308 309 309
314 316 316 318 319 321 321 321 322 324 325 324 324 323 324 325 325 323 323 322 322 324 323 326 327 326 326 328 327 327 328 328 328 328 325 326 326 322 318 316 314 312 311 310 310 310 309 310 309 307 308 309 309 309
318 319 318 320 319 320 319 321 321 322 322 324 323 323 323 324 323 325 329 327 326 326 328 327 327 328 328 328 327 328 327 327 326 325 323 322 323 322 320 314 313 310 310 310 310 309 310 310 310 309 308 308 308 309
316 318 318 318 318 319 319 320 322 323 325 324 325 325 325 324 326 327 327 328 327 326 326 324 322 321 321 320 320 322 322 322 322 321 319 319 319 319 317 316 314 310 310 309 308 309 310 311 311 310 309 309 308 307
315 316 317 319 318 318 320 321 321 324 325 323 323 324 324 325 327 325 327 324 325 322 319 318 319 320 320 321 322 321 319 319 319 318 317 316 314 314 314 315 311 310 311 309 310 310 311 311 311 311 310 309 308 308
316 316 316 318 317 319 319 320 320 321 321 323 324 327 326 324 325 326 325 323 320 319 319 318 320 321 321 321 321 319 317 317 318 319 320 318 318 316 317 316 312 312 311 311 311 311 312 311 311 311 310 309 308 309
315 314 316 316 317 318 319 319 319 320 322 321 322 323 323 329 325 322 321 320 319 317 316 316 319 319 319 319 318 318 317 317 317 317 317 317 316 316 316 315 313 314 313 312 311 311 310 310 311 311 310 309 309 309
314 314 315 316 316 317 317 318 319 320 321 322 321 324 324 324 324 323 321 319 317 316 315 316 318 318 319 318 317 317 317 316 316 316 315 314 314 314 313 313 312 312 312 311 311 311 311 310 310 310 310 309 309 309
315 316 316 317 317 317 316 317 318 319 320 322 323 324 326 326 327 323 319 317 318 316 313 315 317 317 317 317 318 316 314 315 315 315 315 315 314 314 313 312 313 312 311 311 311 311 310 310 310 310 310 310 310 310
315 315 315 316 320 321 318 318 320 321 322 326 324 325 323 324 323 319 317 317 317 315 314 314 313 314 315 315 315 316 315 315 314 311 309 310 311 312 313 312 310 310 310 310 310 310 310 310 310 310 310 310 310 310

GFSWCAN_925_thetae_108.txt.gz
Theta_e
321 322 323 323 321 319 317 314 312 311 312 313 313 311 307 309 309 311 321 326 327 330 327 322 321 322 323 322 324 325 324 323 322 322 322 325 330 335 331 327 326 333 332 330 333 336 338 329 334 334 335 335 334 338
321 322 323 322 321 319 315 313 312 311 311 312 313 313 307 308 309 310 320 326 324 327 327 322 321 319 319 319 321 322 323 323 325 324 326 325 325 324 325 325 328 330 330 333 332 334 333 333 335 332 329 331 335 336
319 321 322 321 319 317 313 312 312 312 311 311 313 313 307 308 309 310 315 323 323 324 323 322 321 320 320 320 320 322 325 325 323 322 323 324 324 323 324 323 323 329 328 327 333 330 328 329 329 331 331 334 334 334
319 321 320 319 318 314 312 312 313 313 312 311 312 313 308 308 309 310 315 323 324 327 328 324 322 321 320 322 321 320 320 321 321 322 321 321 323 324 323 324 325 326 328 325 328 331 330 327 329 330 332 331 333 331
318 316 316 317 314 312 311 311 311 312 312 311 312 313 308 308 310 311 312 320 323 327 331 328 324 323 321 323 322 323 323 323 323 323 323 323 325 326 323 321 323 325 330 328 331 327 332 328 326 327 332 332 331 330
314 314 313 313 313 311 311 312 312 311 311 312 312 313 308 309 311 313 319 318 322 323 328 331 324 324 323 324 324 324 324 322 322 324 324 324 327 326 323 329 324 327 327 329 331 328 328 327 324 324 325 331 329 328
311 311 312 312 311 311 311 311 312 311 312 312 313 310 308 308 311 318 323 322 320 324 328 324 325 325 323 324 324 326 325 323 321 323 324 323 326 321 320 333 326 326 325 325 326 325 326 323 324 323 323 324 328 327
311 313 312 312 312 312 311 311 312 312 312 313 312 307 308 310 312 313 317 319 317 321 321 323 326 328 325 325 326 325 325 325 324 323 324 323 328 326 334 325 325 325 324 324 323 323 323 323 324 323 322 322 324 328
307 312 313 312 311 312 311 312 312 312 313 312 307 307 312 315 318 316 320 317 318 324 326 324 325 330 326 325 327 327 325 324 326 326 323 324 330 329 325 322 324 326 324 324 323 323 322 323 322 322 322 322 322 326
305 306 311 311 313 313 311 312 311 313 312 306 307 315 320 318 322 320 319 320 320 319 327 330 324 329 329 326 326 326 328 325 324 325 327 327 329 328 325 323 323 323 324 323 323 323 321 320 320 320 320 320 320 321
305 305 305 309 310 311 312 311 313 313 305 310 317 323 324 320 321 321 321 319 320 319 319 320 324 328 328 327 327 326 326 325 324 324 326 324 326 330 326 323 322 323 324 323 323 322 321 319 318 318 318 318 318 319
305 304 305 306 308 307 308 310 312 308 314 316 318 322 321 320 322 322 322 322 322 321 323 322 322 326 327 326 328 328 324 325 325 327 326 328 327 331 325 321 322 323 323 322 320 319 319 317 317 317 318 317 317 318
305 304 305 308 308 307 306 307 310 309 311 318 321 324 324 323 324 323 323 323 323 323 324 325 324 329 328 325 324 326 325 324 324 325 325 327 333 327 326 321 322 321 320 319 318 318 316 316 316 317 317 317 317 318
307 305 305 308 308 307 306 307 307 308 311 323 324 325 326 324 323 324 323 325 323 324 325 325 326 327 326 325 325 324 324 324 325 324 326 327 335 329 326 321 321 320 320 319 318 317 316 317 317 317 317 317 318 317
309 306 305 309 307 307 308 308 307 310 317 321 323 327 323 322 323 321 321 323 324 324 326 326 327 325 326 325 324 324 326 325 325 325 324 331 332 331 329 324 322 321 321 320 319 318 317 317 318 318 318 318 317 317
309 308 308 309 309 309 308 306 307 311 315 318 321 323 321 322 322 322 323 323 327 326 327 326 326 325 326 324 324 324 324 325 325 325 329 332 335 334 333 329 327 322 323 321 320 319 319 319 319 319 318 318 316 316
309 310 310 309 310 309 308 308 314 315 317 318 320 319 321 322 323 323 324 323 323 325 326 326 326 325 325 326 324 325 325 325 325 325 329 337 338 337 334 332 327 325 325 323 322 322 321 319 319 319 319 317 315 315
309 310 308 309 309 310 310 310 315 316 317 317 319 319 319 318 319 321 327 324 327 327 328 327 326 327 325 326 327 327 327 325 330 330 335 339 340 334 330 335 330 328 327 326 324 323 321 321 321 320 318 316 314 313
310 310 308 309 310 312 314 313 315 318 318 317 319 319 318 318 321 321 324 322 327 327 327 327 330 329 328 326 328 328 327 327 327 331 332 333 330 333 333 331 331 330 329 327 326 322 322 321 319 317 315 314 314 313
309 309 309 308 309 314 316 317 315 316 318 318 319 319 318 319 320 318 319 326 327 327 330 329 329 328 328 329 329 328 329 332 328 328 328 327 324 326 333 331 328 327 327 326 325 323 321 320 318 314 312 313 313 312
308 309 309 309 311 312 315 317 318 317 318 319 320 319 319 319 318 319 318 320 326 328 330 332 328 327 328 332 329 327 326 326 328 331 329 327 324 322 323 328 329 327 326 326 325 322 320 319 314 311 311 310 310 311
309 309 310 310 312 313 314 313 316 320 320 321 323 323 325 324 323 320 318 319 321 322 325 327 327 326 328 332 330 330 328 331 329 325 323 323 326 328 327 326 325 325 325 324 322 320 316 312 310 310 310 309 309 310
309 310 311 311 314 314 314 315 321 320 322 323 322 323 323 324 324 324 326 320 319 320 322 323 329 330 330 331 330 326 323 328 329 327 328 327 327 328 328 328 326 325 323 316 315 312 311 310 309 309 309 309 309 309
308 310 313 314 314 317 316 322 322 323 323 323 323 323 323 324 323 323 323 324 322 320 322 333 324 325 327 333 326 324 327 325 330 328 329 329 328 329 327 325 324 324 320 315 313 311 311 310 309 309 309 309 309 309
313 315 316 315 317 320 323 323 324 325 325 324 325 325 326 328 328 328 325 322 323 323 324 324 324 324 324 323 324 331 327 320 321 331 327 325 328 326 324 322 320 318 315 313 312 312 311 310 310 309 310 309 309 309
319 317 319 320 322 323 321 320 321 323 324 326 327 327 327 328 325 324 328 330 326 327 324 328 327 326 331 324 324 329 328 327 327 327 325 323 324 324 325 321 316 314 314 312 312 312 311 309 309 310 308 309 309 309
317 319 320 319 320 319 320 320 321 323 326 326 325 325 325 324 324 327 326 327 326 326 325 326 324 322 321 321 321 323 324 323 323 323 322 321 321 322 320 320 317 313 312 311 312 311 310 309 311 310 309 309 309 309
318 317 318 319 320 320 320 321 322 324 326 324 323 326 326 327 327 324 323 322 323 325 322 321 320 321 323 323 323 322 321 321 321 320 319 318 318 318 317 317 317 314 313 313 311 310 310 311 311 311 311 309 309 309
317 316 317 318 318 318 320 320 320 322 324 325 327 326 327 324 322 323 320 324 324 321 321 320 321 321 321 322 320 319 320 320 320 322 321 320 319 318 317 316 312 312 314 313 310 310 311 312 311 312 312 311 310 310
315 316 317 317 318 319 319 319 319 320 321 323 323 324 325 323 319 322 323 322 321 319 318 316 318 319 320 320 319 318 318 319 319 318 318 318 318 317 317 314 313 312 312 312 311 310 310 311 311 311 312 312 311 310
315 316 316 316 318 318 319 319 320 320 321 321 322 324 326 324 319 323 323 321 319 318 316 317 318 318 319 318 318 318 318 317 317 317 316 315 316 317 317 316 314 314 313 313 313 313 313 311 312 312 312 312 312 310
315 315 317 317 317 317 317 318 319 320 321 323 324 325 325 326 328 326 318 318 318 318 315 315 318 319 317 317 318 317 316 316 316 316 316 316 316 316 315 315 316 315 315 315 314 314 312 312 311 311 311 311 311 310
316 316 316 317 320 321 320 318 319 320 322 327 324 323 323 324 325 322 317 318 317 315 315 314 314 314 315 315 315 316 316 316 315 315 314 312 311 312 313 314 314 314 313 313 312 312 312 312 311 310 310 311 311 311

GFSWCAN_925_thetae_111.txt.gz
Theta_e
316 318 320 320 321 322 321 320 319 314 313 312 311 313 313 309 308 309 313 321 325 331 328 328 322 323 324 324 326 324 325 326 326 326 324 330 334 332 326 327 330 330 332 330 331 334 334 329 332 337 333 330 337 337
318 318 318 320 321 321 321 319 316 313 313 312 311 312 313 310 308 308 314 322 322 329 329 326 322 320 319 319 320 322 324 326 326 326 326 327 331 326 328 332 325 332 328 331 332 333 329 329 330 327 327 335 335 331
316 318 318 318 319 320 319 317 313 313 313 312 311 312 313 311 308 308 310 313 323 328 324 323 323 320 319 320 320 323 324 325 327 326 325 324 327 325 325 326 329 327 327 330 331 330 330 328 331 330 332 332 330 328
314 315 316 316 316 319 317 313 311 311 312 312 312 311 313 311 308 308 310 313 318 328 331 327 322 320 320 322 321 320 320 322 321 322 323 322 323 326 325 325 324 328 327 329 330 326 326 329 331 332 333 330 329 326
315 316 315 314 316 316 313 311 311 311 311 311 311 312 313 310 308 309 310 310 313 325 330 330 327 323 321 323 322 323 324 324 324 325 324 324 327 328 325 322 323 328 331 331 331 326 329 328 328 332 332 331 328 326
314 314 313 313 313 313 311 312 311 312 312 311 311 312 313 309 309 311 322 317 317 322 329 332 327 325 322 323 324 324 325 325 324 324 324 328 327 328 325 329 326 330 328 327 329 328 325 325 325 330 331 330 328 325
311 312 312 313 312 311 312 312 311 312 312 312 312 312 312 308 308 315 323 322 318 322 331 330 329 325 324 324 325 326 326 326 322 322 325 326 325 324 322 325 326 328 325 326 328 327 328 326 324 325 330 329 328 326
307 311 312 312 312 312 312 311 311 312 313 312 312 312 308 307 309 312 311 314 318 323 325 325 327 328 324 326 327 326 327 327 326 323 326 325 328 329 331 325 326 327 326 324 326 324 324 324 324 323 323 328 327 325
305 305 310 312 311 312 313 311 312 312 312 313 312 307 307 311 317 317 314 319 317 322 329 322 325 332 327 328 328 328 329 328 328 328 327 327 327 319 326 326 324 327 325 324 324 323 324 324 323 323 323 324 327 326
306 305 305 308 311 312 313 311 312 312 313 311 306 312 319 318 316 319 318 325 325 323 329 332 328 328 329 330 331 331 329 330 328 330 327 330 330 328 328 325 326 327 325 324 324 323 322 321 322 322 320 320 321 327
306 306 305 305 307 310 310 311 311 313 310 308 314 322 324 321 321 326 326 323 323 322 320 321 326 328 329 332 331 330 330 329 329 328 329 330 329 330 328 326 325 326 325 324 325 324 320 320 319 318 318 318 318 321
307 306 305 305 307 308 308 309 311 310 312 311 311 315 322 323 324 324 325 325 326 321 324 318 317 320 329 328 332 331 327 328 327 330 331 334 333 331 327 326 324 325 325 324 324 323 322 320 319 319 318 317 317 318
310 307 305 305 307 308 307 307 309 311 310 313 319 323 324 324 320 325 323 325 325 325 322 324 324 327 331 331 328 329 327 327 327 328 331 331 332 330 327 324 324 325 325 324 322 320 318 318 317 319 319 317 318 318
309 308 307 305 308 308 308 306 307 307 308 320 323 317 325 326 324 324 323 323 325 322 325 326 325 334 332 330 330 330 329 327 329 329 328 330 330 330 326 324 324 324 323 321 321 319 317 319 317 317 318 318 318 318
309 309 307 305 309 307 308 308 307 308 314 321 322 322 325 324 324 324 323 323 325 324 326 327 329 329 329 329 328 327 330 328 328 327 330 331 330 328 326 324 323 322 321 320 320 319 318 318 319 319 317 317 317 317
309 310 310 307 309 309 309 307 306 311 315 319 321 324 324 324 324 323 325 325 326 328 328 328 330 331 331 328 328 327 325 328 327 332 331 330 329 328 328 326 324 323 322 322 321 320 319 318 319 319 318 319 317 317
309 310 311 309 309 309 308 308 312 315 316 318 319 319 320 321 324 324 325 325 324 327 329 329 331 330 328 329 328 326 325 326 329 330 329 329 331 331 331 329 328 325 324 323 322 322 320 319 318 321 320 318 317 316
309 311 309 309 310 310 309 310 314 315 316 317 318 319 320 322 322 321 323 327 328 329 329 326 330 329 328 327 329 326 329 333 335 332 331 334 336 335 332 332 330 328 327 326 324 323 322 322 322 321 319 317 315 315
309 310 309 309 310 311 313 312 313 317 317 318 319 318 319 320 321 321 327 329 327 327 328 329 331 331 330 331 333 333 331 333 334 336 337 338 337 337 335 333 333 332 330 330 328 326 324 322 322 321 318 316 315 314
308 308 308 308 309 312 315 315 312 317 318 320 319 320 320 320 319 319 324 324 324 327 328 331 330 330 331 329 331 333 333 329 328 329 330 327 329 334 334 334 334 332 332 331 330 327 325 322 320 318 316 315 314 314
308 309 309 309 312 311 314 316 318 319 318 319 320 321 320 320 320 319 320 324 327 327 325 332 331 325 325 328 334 329 331 327 324 323 322 322 322 326 323 326 332 332 328 328 327 323 323 321 314 312 313 312 312 312
309 309 309 309 312 314 315 314 316 318 319 321 321 323 324 324 322 322 321 322 326 328 326 325 327 324 322 323 333 333 329 323 320 320 320 322 323 325 327 330 328 329 328 326 325 322 315 313 311 311 311 312 312 311
309 310 310 311 313 313 313 314 318 318 321 324 325 325 325 326 325 327 328 326 325 322 325 327 328 325 326 331 331 329 326 328 327 326 326 327 329 327 323 324 326 328 327 323 317 312 311 311 311 311 312 312 311 310
308 310 314 314 314 314 316 319 320 322 324 324 323 324 325 326 326 326 326 325 324 325 326 329 336 333 332 336 335 331 329 327 326 324 322 326 330 329 320 318 323 325 324 318 314 311 311 311 312 313 312 309 310 310
310 312 313 310 315 316 320 323 324 325 325 326 326 326 328 329 330 328 327 330 329 326 325 324 329 327 326 329 329 330 326 320 321 322 319 322 325 326 325 323 321 321 318 316 314 312 312 312 312 310 309 310 310 310
311 315 311 316 320 320 323 323 324 325 325 326 326 325 327 328 326 327 331 330 327 323 325 325 325 324 326 327 327 326 327 327 323 322 321 324 323 325 324 320 319 317 317 315 314 312 312 311 310 310 310 309 310 309
316 316 318 316 322 322 321 321 321 324 326 326 328 329 329 327 326 330 329 326 325 319 319 319 321 323 325 326 323 324 323 323 323 323 321 321 321 323 323 321 319 316 315 314 313 313 312 311 310 310 310 310 309 309
316 319 321 322 321 320 321 321 321 324 326 326 327 327 327 327 328 325 325 322 320 321 321 321 321 323 323 323 322 322 322 321 321 320 319 319 318 318 318 318 319 316 314 314 313 313 312 310 309 310 311 309 309 310
318 317 317 319 318 319 321 321 321 323 321 325 327 327 329 325 320 321 321 322 322 324 324 323 322 323 322 321 320 320 320 321 321 323 322 321 320 318 317 315 314 313 313 313 313 312 310 310 310 312 312 311 312 310
315 315 317 317 319 319 319 318 320 320 322 323 324 324 323 321 319 319 320 321 324 322 318 316 317 319 321 322 320 320 319 319 319 319 320 319 319 318 318 315 314 314 315 314 313 311 310 311 311 311 311 311 311 311
314 316 316 316 318 318 319 319 320 320 322 322 322 325 326 324 322 322 322 322 321 320 319 317 318 319 319 319 319 319 319 318 317 316 315 316 317 318 317 316 314 314 314 313 312 311 311 311 311 311 312 311 312 312
316 316 317 317 317 318 319 319 320 320 320 322 324 326 324 322 322 322 318 319 319 320 316 315 317 318 316 316 317 316 316 317 317 317 315 314 316 318 317 317 315 314 313 313 313 313 312 312 312 312 312 313 312 311
316 316 316 317 318 319 319 319 318 320 326 327 325 324 325 326 327 325 319 318 317 316 315 314 314 314 313 314 314 314 315 316 316 315 315 314 312 312 315 316 316 316 316 315 315 315 315 314 314 314 314 312 313 312

GFSWCAN_925_thetae_114.txt.gz
Theta_e
314 314 314 317 318 319 320 320 321 320 318 314 313 312 312 313 311 308 309 315 318 324 324 325 323 318 318 317 318 316 317 317 318 320 319 325 326 325 326 324 327 323 323 324 330 332 330 327 329 333 330 328 335 335
313 313 315 318 317 318 319 320 320 319 316 313 313 312 312 313 312 308 309 314 312 321 323 324 321 321 318 318 313 314 315 320 317 320 320 320 327 320 320 324 323 325 322 324 326 328 324 325 327 325 325 332 330 331
313 313 313 314 315 316 318 319 319 316 312 312 312 312 312 312 312 309 308 309 318 323 321 319 317 320 320 319 320 316 315 317 317 315 316 315 319 318 321 320 326 325 324 324 326 327 326 327 324 331 328 330 327 325
313 313 314 315 316 316 316 319 316 312 311 311 311 311 311 312 312 310 308 313 310 319 327 323 326 320 320 321 320 320 317 318 314 312 314 314 316 316 317 317 322 322 323 324 324 326 325 326 328 331 330 326 324 322
315 315 316 315 315 315 315 315 312 312 311 311 311 311 311 312 312 308 308 309 310 319 325 323 324 325 325 321 321 322 321 316 316 317 316 318 317 320 318 317 320 322 323 325 324 321 322 324 326 330 329 326 323 321
314 314 314 313 313 312 312 312 312 312 311 312 311 311 312 312 309 309 313 318 312 315 324 326 324 323 320 322 322 322 320 318 315 316 315 318 320 320 321 321 321 320 318 322 325 320 323 325 330 330 328 325 323 321
311 311 312 312 313 312 311 312 312 311 311 312 312 311 312 312 308 310 316 320 317 315 324 326 323 321 321 321 319 319 321 319 317 313 315 318 319 317 315 318 319 320 318 322 323 322 324 321 328 328 327 326 323 322
306 306 311 312 312 312 312 312 311 311 312 312 311 312 312 308 307 309 310 316 313 316 320 321 319 323 321 319 320 316 320 319 319 314 316 319 320 318 317 316 319 319 321 323 324 322 320 319 327 328 328 325 324 322
306 305 305 308 310 311 312 313 311 312 312 312 313 311 307 308 311 314 312 313 315 320 320 318 319 327 321 321 319 320 318 321 317 318 317 320 316 317 319 319 320 323 322 320 321 319 320 321 322 326 327 326 325 323
307 306 305 305 306 310 311 312 311 312 312 313 307 309 312 317 312 319 318 319 320 318 320 326 319 318 321 321 322 322 319 320 322 322 318 320 320 316 316 316 314 318 319 317 319 319 320 321 321 321 320 325 325 323
310 307 306 305 305 307 309 310 311 313 311 307 309 313 320 319 319 320 323 319 318 319 313 318 322 324 319 325 326 324 324 320 323 319 322 322 322 321 320 316 315 318 318 317 318 316 314 315 315 314 315 320 324 323
309 308 306 305 305 308 308 308 310 312 311 311 309 311 316 321 321 322 321 319 319 318 315 313 312 316 321 322 324 325 324 320 321 319 323 323 321 322 321 319 317 319 318 318 322 320 316 317 315 315 314 318 321 322
310 309 308 306 305 307 308 308 308 311 310 309 314 318 322 321 319 323 324 324 319 319 316 315 315 313 322 321 324 326 326 322 319 324 326 321 322 323 319 319 318 320 321 320 321 319 318 317 317 316 314 317 317 317
309 309 309 308 305 307 308 307 307 309 307 314 321 317 321 324 323 322 321 318 318 317 317 318 317 325 322 324 321 325 322 320 324 324 324 319 322 322 318 317 317 320 320 320 317 317 316 316 317 317 316 316 317 316
309 309 310 310 307 308 307 308 308 307 312 318 320 317 322 321 321 320 319 318 319 319 321 323 322 322 323 323 321 323 325 324 323 322 319 318 319 320 317 316 316 317 317 315 316 314 315 315 316 317 317 317 318 318
309 309 310 310 308 308 309 307 307 309 314 318 318 321 321 321 322 323 324 321 321 325 323 323 327 327 327 326 324 324 323 325 321 318 320 322 321 318 316 315 316 317 316 316 316 315 315 315 315 315 316 316 316 317
309 309 311 309 309 309 308 307 310 313 315 317 316 315 317 318 319 320 322 322 321 323 327 327 330 329 327 327 327 321 320 318 317 322 323 321 320 318 316 316 317 317 316 317 317 316 316 316 316 316 315 317 317 317
309 311 310 309 309 309 308 309 312 314 315 313 315 316 315 317 317 318 318 323 324 324 324 325 327 331 329 328 325 322 318 319 322 322 322 323 320 319 320 318 320 320 319 318 318 319 317 316 315 315 316 317 317 318
309 309 309 309 310 311 312 311 312 316 316 314 314 314 313 314 315 317 321 324 323 322 324 326 327 330 329 327 327 325 325 325 327 327 325 324 327 327 326 325 324 324 324 322 321 319 319 318 317 316 318 316 315 314
307 308 308 308 309 311 314 314 311 315 316 316 314 314 314 315 316 315 319 321 320 321 323 328 328 326 327 324 323 325 325 324 325 325 323 319 322 324 326 328 329 330 330 328 326 324 320 319 318 319 317 315 314 312
308 309 309 308 309 310 312 315 316 316 317 317 315 316 316 315 316 316 316 319 321 321 322 322 323 323 324 322 325 325 324 322 321 323 324 323 320 321 322 323 323 324 327 325 320 319 320 315 316 316 314 313 313 313
308 309 309 309 311 313 314 313 314 315 316 316 316 318 321 321 318 316 315 320 322 321 321 322 322 320 318 320 320 323 326 324 322 321 320 319 316 316 318 323 322 322 323 323 322 321 318 316 318 318 314 313 313 313
309 309 310 310 313 311 311 312 314 315 318 319 321 322 322 322 320 320 322 321 319 316 320 319 319 322 320 320 321 324 324 322 323 321 317 319 320 323 325 327 327 324 322 323 324 322 318 316 314 312 312 312 313 313
308 310 313 313 312 313 314 315 316 317 319 321 322 322 323 324 322 323 324 321 320 319 319 321 322 322 322 326 326 328 327 324 323 323 324 324 321 323 321 319 321 323 325 322 318 314 312 311 311 312 312 314 314 311
309 308 311 309 313 315 317 321 321 323 323 322 323 323 324 322 323 324 324 324 322 320 321 321 321 321 324 324 323 323 324 324 320 316 319 322 325 322 319 322 322 320 320 317 311 310 311 311 312 312 312 313 313 310
309 311 311 315 317 316 319 324 324 325 324 324 325 322 321 324 325 324 325 324 322 318 319 320 319 318 319 321 321 321 326 323 321 321 322 320 324 323 320 316 315 316 317 317 313 311 311 311 311 312 311 310 311 309
312 314 315 311 316 319 323 322 320 321 325 326 326 325 326 327 326 325 325 321 320 320 319 320 322 321 320 321 323 322 324 326 323 321 320 320 322 322 323 319 316 319 317 316 314 311 311 311 311 310 309 309 309 309
313 317 317 320 319 318 321 319 321 323 324 324 325 326 327 326 325 322 321 322 321 320 321 322 321 323 324 324 323 322 322 321 320 319 319 318 318 318 318 318 319 319 316 315 314 312 312 312 311 310 309 309 309 310
317 318 318 318 320 319 320 320 321 321 320 323 326 325 325 323 320 318 320 319 320 321 322 322 324 324 322 321 321 322 321 320 319 319 319 317 314 317 316 316 315 314 314 314 313 313 313 312 310 309 310 311 311 310
313 312 314 317 319 319 316 316 317 321 320 322 322 323 322 319 319 318 319 320 320 319 319 320 323 323 320 320 319 319 320 320 320 319 316 314 316 318 317 316 314 314 313 313 313 312 311 310 309 310 311 311 311 311
311 311 314 316 315 315 317 315 315 317 320 319 322 324 322 322 321 321 322 321 323 323 321 316 316 317 318 320 319 317 315 319 319 316 316 317 317 317 317 316 314 314 314 313 313 312 311 310 310 311 311 311 311 311
315 315 315 316 316 317 316 318 318 318 321 323 323 322 322 318 320 320 319 318 321 318 316 315 313 314 317 317 317 317 317 317 315 314 315 316 317 317 316 315 313 314 314 314 313 311 310 310 311 311 311 311 311 311
314 314 314 315 316 317 316 317 319 325 324 324 323 323 323 321 323 321 320 318 315 314 314 314 314 313 314 314 314 314 315 317 316 316 315 314 314 314 317 316 315 313 312 313 312 311 311 311 311 311 311 311 311 312

GFSWCAN_925_thetae_117.txt.gz
Theta_e
313 312 313 313 313 314 317 317 317 318 319 319 317 312 312 312 313 311 308 312 313 320 321 323 323 320 317 316 317 315 317 316 315 318 317 324 323 323 323 321 324 320 322 322 325 328 327 326 328 331 328 327 334 334
312 312 312 312 313 313 315 315 316 317 319 318 313 311 312 312 312 312 307 313 310 312 318 324 324 324 320 316 312 312 315 316 315 318 317 319 325 320 319 321 320 321 319 323 323 324 322 324 326 324 325 332 333 330
312 313 312 312 312 313 314 315 316 317 317 312 311 311 311 311 312 312 309 308 314 317 320 318 319 320 320 317 318 315 313 315 315 311 313 313 320 316 321 320 323 321 320 321 324 324 325 325 325 328 329 329 327 324
314 314 313 313 314 315 316 316 315 315 313 311 311 311 311 311 312 312 311 311 309 311 323 322 324 323 319 319 319 318 315 314 310 310 313 312 313 313 315 316 320 320 321 322 322 323 324 324 326 329 326 324 322 320
314 314 315 315 315 315 315 314 313 312 312 311 312 311 310 311 312 312 311 308 308 313 322 321 321 321 324 319 321 321 318 313 313 315 313 315 311 317 315 316 318 320 320 323 324 321 321 323 325 326 325 324 320 319
313 313 312 312 312 313 313 312 310 311 312 311 312 311 311 312 312 308 308 316 310 312 320 323 321 323 319 319 320 319 317 313 312 314 314 313 316 317 319 320 319 321 319 318 321 319 320 322 327 327 325 322 320 319
311 310 310 312 312 312 312 312 312 312 311 311 312 312 311 312 312 308 308 313 312 313 321 324 322 319 319 318 317 316 317 315 315 311 313 314 317 313 314 319 319 319 317 317 320 321 324 328 328 327 325 323 321 320
309 306 305 308 310 310 310 311 312 312 312 312 312 311 312 312 310 308 309 314 314 310 317 320 320 320 319 319 319 313 317 316 316 313 314 318 317 314 315 313 313 317 319 322 320 320 320 322 326 325 324 322 321 320
309 306 305 305 306 309 310 310 312 311 312 312 312 312 309 307 306 311 314 312 311 316 316 317 318 324 317 317 316 317 315 320 315 317 314 318 314 317 319 317 317 318 320 322 322 321 319 325 326 325 323 322 321 320
309 308 306 305 305 305 308 310 311 311 312 312 310 307 308 312 316 317 319 314 315 315 316 323 317 314 318 318 319 320 316 319 320 318 316 318 317 316 314 314 317 317 318 318 321 320 319 326 325 325 325 323 322 320
309 309 308 306 305 305 307 308 309 311 312 307 307 310 315 318 317 316 318 317 317 317 316 321 320 322 318 324 322 319 321 320 321 319 322 319 321 318 316 314 312 315 317 315 317 316 316 320 321 323 322 324 323 322
309 308 308 307 305 305 307 308 308 311 309 310 309 310 312 317 317 321 320 318 318 317 314 313 317 319 318 319 321 321 322 318 322 316 321 320 318 316 318 317 314 313 316 316 318 315 316 317 317 316 318 319 323 324
309 309 309 309 307 305 306 308 308 309 310 308 311 316 317 316 316 322 322 322 319 317 313 310 310 316 320 318 322 323 326 322 316 323 324 320 315 319 319 315 314 315 317 317 319 318 316 315 314 315 316 320 322 323
308 309 309 309 309 306 306 308 307 308 308 311 319 321 317 321 321 321 320 319 317 315 314 311 310 315 316 322 319 324 322 318 321 321 321 316 317 318 316 316 315 318 317 317 318 317 315 315 314 315 317 319 320 319
308 309 309 310 310 308 308 307 308 308 309 317 318 314 319 319 319 319 318 318 317 316 317 319 320 320 320 322 319 320 323 323 320 321 317 315 313 317 316 315 313 316 317 315 316 315 315 315 315 314 315 317 317 317
308 309 309 310 308 308 309 308 308 308 312 317 318 319 318 320 321 321 322 321 318 320 318 321 325 327 325 321 322 323 323 324 320 316 315 315 316 316 316 314 313 314 315 315 315 314 314 314 314 316 315 315 316 316
309 309 311 309 309 309 308 307 309 311 313 316 315 313 316 318 319 319 319 318 319 321 325 324 326 328 326 325 325 320 320 317 316 315 315 318 317 317 314 313 313 314 314 314 314 314 313 314 315 314 312 315 316 317
309 310 310 309 309 309 308 308 312 313 314 314 313 314 314 316 317 317 315 319 322 321 322 325 324 328 329 329 324 319 318 315 314 313 315 318 315 314 315 313 314 315 315 316 315 315 314 312 311 311 313 315 315 315
308 309 310 309 310 310 311 310 311 315 315 314 312 311 311 311 311 315 316 321 321 321 321 321 324 325 325 326 326 324 322 322 322 321 320 319 317 317 317 317 316 317 316 316 315 315 315 315 313 313 313 313 313 314
307 308 308 308 309 311 313 313 311 313 313 314 311 311 311 312 312 313 315 321 321 319 321 324 323 323 323 324 323 322 322 321 321 321 320 319 322 326 325 323 322 322 322 322 322 319 317 316 316 315 314 314 314 313
306 308 308 308 309 309 311 313 314 313 315 314 313 313 313 311 313 314 314 316 317 318 319 320 322 321 318 319 322 323 323 320 320 321 323 323 322 322 323 322 323 321 320 321 321 321 321 320 320 319 316 315 315 314
308 309 309 308 310 312 313 312 312 312 315 314 313 314 316 318 316 314 313 318 318 318 316 316 317 318 319 321 321 322 323 324 323 323 321 320 320 317 314 317 318 318 320 322 322 320 321 323 320 318 316 314 313 312
309 309 310 310 312 311 310 311 313 313 317 316 319 321 319 318 318 315 317 317 317 317 317 316 317 318 317 319 320 321 324 324 321 322 323 322 321 318 318 319 323 322 319 321 323 322 321 318 316 315 313 312 312 311
308 310 312 313 312 312 313 314 313 315 314 317 319 320 321 320 320 320 321 319 317 316 318 319 320 321 319 320 322 321 321 322 321 321 321 319 319 320 322 323 323 322 322 322 321 320 319 317 315 313 312 312 312 312
308 307 309 308 313 314 316 315 318 318 320 319 321 321 321 321 323 325 324 323 321 319 319 319 319 321 322 322 321 321 324 321 320 320 321 321 321 321 321 320 319 320 320 318 314 314 314 313 312 311 312 312 312 313
310 310 310 314 315 314 315 320 323 323 324 324 324 321 319 321 323 323 320 322 319 317 317 318 318 318 319 318 320 320 322 323 323 318 320 319 319 321 317 316 314 316 318 318 316 312 311 311 311 312 313 313 313 312
309 312 312 310 314 317 319 320 320 322 325 325 324 323 323 325 325 322 322 319 318 318 319 319 319 316 316 318 320 322 325 323 322 321 320 321 322 322 322 319 316 319 319 318 316 315 312 311 312 312 312 312 313 312
312 314 316 317 314 317 318 320 319 322 324 322 322 327 328 326 324 319 318 320 321 321 321 320 321 321 321 321 322 323 324 321 319 318 318 317 317 318 319 319 319 320 319 317 316 314 311 311 311 311 310 311 312 313
313 316 315 318 319 319 318 318 319 320 318 322 325 323 324 322 318 315 318 320 319 320 319 318 322 322 322 321 321 321 320 319 317 317 317 315 313 316 316 316 316 316 316 315 314 313 312 311 311 311 311 310 311 310
315 315 316 315 318 317 315 313 316 318 320 321 321 320 319 317 318 318 318 319 319 317 319 318 319 322 318 318 319 319 320 320 319 317 315 314 316 318 317 316 315 314 314 314 313 312 312 311 311 310 310 310 310 310
308 308 311 312 314 313 314 314 313 318 319 318 321 321 319 319 317 320 321 321 321 321 314 312 313 317 319 318 316 315 314 319 319 320 319 320 318 317 317 316 315 313 313 313 312 311 309 310 309 310 310 310 310 311
310 311 312 313 313 312 312 314 314 316 319 322 322 319 319 316 318 317 319 318 316 314 313 313 315 316 318 318 319 320 319 319 319 319 316 315 315 315 316 316 314 313 314 313 313 312 311 310 309 309 310 310 311 311
311 311 312 312 313 314 312 315 319 319 320 321 321 321 321 318 321 316 319 316 315 313 313 313 315 314 314 314 314 314 315 317 317 316 315 314 315 315 316 316 314 313 314 314 313 312 312 312 311 310 309 310 311 311

GFSWCAN_925_thetae_120.txt.gz
Theta_e
315 315 312 311 312 312 312 313 313 314 316 316 316 316 312 312 312 312 312 309 311 317 316 322 322 320 317 315 317 314 317 316 314 317 316 321 321 322 322 319 321 318 320 320 322 326 327 325 328 331 325 327 335 332
311 311 312 312 312 311 312 312 313 315 316 315 314 311 311 311 312 312 311 312 311 309 313 318 320 323 323 321 312 311 315 316 314 316 315 318 323 318 317 320 318 320 316 319 320 321 318 321 324 323 324 330 332 327
309 311 312 312 312 312 312 313 314 315 315 314 312 311 311 311 311 311 312 310 311 314 317 318 321 319 320 322 320 315 313 315 313 310 312 314 319 315 319 318 320 319 316 322 323 320 324 323 325 326 329 330 325 323
310 312 313 313 313 314 314 314 315 314 314 312 312 311 311 311 311 311 311 309 310 309 320 320 322 322 322 320 317 316 313 312 309 308 311 311 312 312 315 316 318 318 319 320 320 320 322 322 322 328 326 324 322 320
310 312 314 314 314 314 314 314 313 312 312 311 312 311 311 311 311 311 311 313 310 311 319 318 318 320 321 316 316 317 315 312 311 313 311 313 309 314 312 314 317 318 321 323 322 319 319 320 324 326 325 324 321 319
311 312 312 311 312 312 312 313 312 311 311 311 311 311 311 311 312 311 308 310 310 307 314 321 317 321 317 318 318 315 314 311 310 313 313 311 312 316 318 317 316 317 316 317 320 318 319 322 326 325 324 322 320 318
310 311 308 308 311 311 310 310 310 311 312 311 312 312 311 311 311 308 308 308 311 308 315 322 320 318 318 316 315 314 315 313 313 310 312 312 315 313 314 318 316 318 320 317 317 320 325 327 327 324 323 322 320 318
310 310 307 305 306 307 308 309 310 312 312 312 312 311 311 311 311 310 311 310 310 309 315 319 318 318 317 318 319 311 315 314 313 313 312 317 314 311 313 313 313 315 318 317 319 319 319 323 325 324 322 321 319 318
308 309 308 306 305 305 305 309 310 311 311 311 311 312 312 309 306 309 314 310 312 312 315 314 318 321 315 316 315 316 313 319 312 318 314 316 312 316 318 317 316 315 317 317 318 319 323 326 326 324 322 321 319 318
308 308 309 307 306 305 305 307 308 310 311 312 311 306 306 308 315 314 317 313 311 311 313 319 315 316 316 316 318 319 314 319 321 317 314 316 316 314 315 314 314 314 315 318 320 320 322 324 325 324 323 321 320 319
308 308 309 309 307 306 305 307 308 309 311 309 305 307 313 315 316 314 316 316 314 317 313 316 318 320 316 322 321 317 319 318 322 319 321 318 318 317 315 313 312 313 315 317 319 319 318 323 324 324 322 322 321 319
307 308 308 308 307 306 306 305 308 308 309 309 308 309 310 316 316 321 320 316 316 316 314 317 318 318 317 316 321 320 322 317 322 314 320 319 317 315 314 317 314 313 315 317 317 317 317 320 323 324 323 323 322 322
308 309 308 308 309 307 306 306 308 307 308 308 310 314 317 316 317 321 322 320 318 317 314 309 312 314 316 317 320 321 323 321 316 321 323 319 316 314 316 317 313 312 316 317 316 317 317 317 319 322 321 323 323 323
308 308 308 309 309 309 308 307 308 307 308 310 318 318 317 319 319 318 319 317 316 314 313 309 308 314 314 320 319 325 321 317 320 320 320 316 315 315 316 314 312 314 316 316 317 316 315 315 315 318 320 321 320 320
308 307 308 309 310 310 308 308 307 308 308 314 318 316 318 316 316 318 316 316 316 314 315 317 317 318 317 321 318 318 322 323 320 320 316 314 312 313 316 314 312 314 315 314 316 316 315 314 313 314 316 318 319 320
307 308 308 309 309 308 308 308 308 308 310 315 317 318 316 317 319 317 321 322 317 318 316 319 322 323 323 318 321 323 322 323 319 315 314 312 313 313 315 314 312 313 315 315 315 316 315 314 313 314 314 316 317 318
307 308 310 310 308 309 308 307 309 310 312 315 317 312 314 317 318 318 318 319 316 319 323 323 326 326 322 324 324 319 320 317 315 314 311 312 315 316 313 313 312 312 314 315 315 314 315 315 314 313 311 313 315 316
308 310 310 309 309 309 308 308 311 313 314 314 314 313 313 314 319 318 316 317 319 320 322 324 322 325 326 327 323 319 319 318 316 315 314 311 314 314 314 313 313 314 314 315 315 315 313 311 311 311 314 315 314 314
308 308 309 309 309 310 311 309 310 314 314 312 311 310 309 310 309 314 314 315 320 320 319 320 323 324 325 322 322 321 320 320 321 319 317 315 316 314 314 314 314 314 314 314 313 313 314 314 313 313 313 312 312 313
307 308 308 309 309 310 314 313 311 310 312 311 310 310 310 310 310 310 312 313 320 319 321 323 321 319 321 321 321 321 320 319 320 321 320 318 319 319 317 316 316 315 315 315 315 315 314 314 314 314 313 312 311 312
306 306 308 308 309 309 310 312 314 313 311 313 313 312 311 309 311 311 312 314 317 318 318 318 319 318 317 317 320 321 321 320 322 322 322 321 320 319 319 320 322 323 321 320 319 320 320 318 319 318 315 313 313 313
307 308 308 308 310 311 312 311 313 313 313 315 313 315 315 316 314 312 310 316 317 316 315 315 315 316 316 318 318 320 321 321 321 321 320 319 321 321 318 317 317 317 318 319 319 319 320 321 322 321 320 318 315 314
308 309 309 309 311 310 310 310 313 311 315 315 317 320 317 316 315 312 316 315 316 314 315 315 315 314 314 316 319 320 321 322 321 322 321 320 320 319 317 317 318 318 319 320 321 321 321 320 319 317 316 314 313 312
307 309 312 313 311 311 312 313 314 314 313 314 316 318 318 318 318 319 320 315 315 313 314 315 316 318 317 316 318 319 320 322 322 322 322 320 318 318 320 321 322 322 322 322 320 320 319 318 316 315 313 312 311 311
309 308 308 307 313 313 314 316 317 317 318 316 318 317 318 317 320 321 322 319 319 318 317 318 319 320 322 321 319 319 320 320 319 319 319 321 320 319 319 320 320 320 320 319 317 317 316 316 314 312 312 311 311 311
309 310 307 313 314 314 314 317 318 321 322 323 323 322 318 318 322 322 319 320 320 319 318 318 319 320 320 319 321 319 320 321 320 319 320 321 320 318 318 318 317 319 320 319 318 316 314 313 312 311 312 311 312 312
309 311 310 307 313 315 317 317 317 318 322 324 322 322 322 323 323 321 320 320 318 317 318 318 317 315 315 316 318 322 323 322 322 320 320 320 320 320 321 320 318 320 320 319 318 317 315 313 311 311 312 311 312 313
306 310 312 314 312 313 315 317 320 322 323 321 321 325 327 326 324 318 317 319 319 319 319 319 321 321 320 320 321 323 322 322 319 318 318 317 317 317 318 318 317 317 318 318 317 316 314 312 311 311 312 312 311 312
312 314 314 315 317 317 317 316 318 319 319 321 324 322 322 321 318 314 317 319 318 319 316 316 319 320 320 321 321 322 322 320 316 317 317 315 313 316 316 316 316 315 316 316 315 314 313 312 311 312 311 311 313 313
313 313 315 318 319 318 317 316 317 320 320 321 321 317 315 314 316 317 318 318 318 317 317 316 318 320 318 318 318 319 319 318 317 316 314 314 315 318 318 316 315 315 314 314 314 312 311 310 310 310 309 310 311 311
308 311 313 312 313 314 314 312 312 317 319 319 318 319 318 317 315 319 320 320 320 319 313 311 313 319 318 317 315 315 316 319 319 319 319 319 319 319 318 316 315 314 313 313 313 312 311 311 310 309 309 308 309 309
308 310 311 312 313 312 312 313 313 316 318 320 321 320 317 315 319 316 318 318 316 313 312 313 314 314 316 318 319 319 319 319 319 318 318 318 318 318 316 315 315 313 313 312 313 312 310 311 309 309 309 310 309 309
309 309 310 311 312 313 312 314 318 317 319 320 321 321 319 318 319 315 316 314 314 312 312 314 314 313 313 313 313 313 313 314 315 316 317 316 314 314 315 315 316 314 313 313 312 312 310 309 309 309 309 310 310 310

GFSWCAN_925_thetae_123.txt.gz
Theta_e
316 314 312 311 311 312 311 311 311 312 314 315 315 315 313 311 311 312 312 311 310 316 319 323 325 324 322 319 324 319 322 322 321 324 323 328 331 332 329 325 327 328 329 330 331 333 330 330 330 335 333 332 336 335
313 310 310 311 311 311 311 311 312 312 314 315 315 313 312 311 311 312 311 309 309 312 316 312 314 316 320 323 322 316 323 323 323 325 325 328 330 327 329 327 323 328 324 328 327 327 326 328 329 328 329 335 336 333
309 308 310 312 312 312 313 313 313 313 315 314 314 312 311 311 311 311 311 312 308 314 317 319 318 320 319 321 321 321 319 320 320 318 322 326 329 325 329 329 326 325 321 327 329 327 325 328 328 328 331 335 333 331
308 308 310 312 313 313 313 313 314 314 314 313 312 311 311 311 311 311 311 311 309 310 319 324 321 321 321 321 319 318 317 314 315 317 321 323 323 322 325 324 325 325 324 328 329 327 326 328 328 331 332 330 329 328
308 309 311 312 311 312 312 312 312 313 312 312 311 311 311 311 311 311 311 311 311 312 319 320 318 319 320 319 316 315 316 319 320 320 321 322 318 321 321 321 326 324 329 329 326 329 329 328 328 331 331 330 328 326
309 309 311 310 309 312 312 311 311 312 311 312 311 311 311 311 311 311 311 309 311 311 313 323 321 323 318 316 316 317 318 318 320 323 323 319 318 323 329 329 326 324 325 328 327 324 326 326 329 331 330 329 325 323
309 310 310 308 305 309 308 309 309 310 311 312 311 312 312 311 311 311 312 308 309 310 315 324 326 321 318 319 319 320 318 319 322 322 322 321 324 323 326 332 327 326 325 325 323 327 330 331 333 329 327 325 322 322
309 310 310 308 306 305 306 308 308 309 311 311 312 311 311 311 311 311 311 312 308 309 315 326 326 321 318 324 324 317 323 322 321 323 319 323 321 321 330 326 326 322 324 325 324 325 325 330 330 327 325 323 324 323
310 309 308 309 306 306 305 305 307 309 310 311 311 312 311 310 310 308 312 310 308 310 319 320 324 325 320 322 322 322 321 326 320 326 324 324 327 329 329 329 327 322 325 327 323 324 325 331 330 327 326 324 324 324
310 309 308 308 308 306 306 305 307 308 309 311 312 307 310 308 311 311 313 312 311 313 316 322 321 324 321 323 325 328 323 327 329 327 320 325 328 328 330 329 329 326 323 323 326 326 330 332 330 328 325 324 323 323
309 309 308 308 309 308 306 305 306 308 311 309 307 310 311 312 315 318 320 316 315 321 319 319 321 321 321 328 330 324 328 326 330 328 328 328 328 327 324 323 323 323 323 325 326 327 329 331 330 329 327 325 323 322
309 308 307 308 308 308 306 306 306 308 309 308 309 308 309 318 320 322 323 319 320 321 317 320 320 320 322 324 331 328 330 325 328 322 327 330 327 327 324 323 322 321 322 325 324 326 328 330 329 328 328 326 324 323
309 308 308 308 308 308 308 306 305 308 308 308 309 314 318 320 321 324 323 325 322 320 318 316 321 321 322 323 328 330 329 328 322 326 330 328 329 325 324 325 323 320 321 323 324 324 324 326 328 328 328 327 325 325
308 308 307 307 308 309 308 308 307 307 308 309 315 317 322 323 322 322 322 322 321 319 318 314 317 321 321 326 328 329 327 325 328 328 327 326 330 327 323 324 322 321 322 323 324 322 323 324 324 326 327 327 327 326
308 308 307 308 309 309 309 308 307 307 308 312 315 323 322 320 319 320 319 320 320 318 319 318 318 321 325 326 325 325 327 328 326 323 324 326 326 323 325 324 322 322 323 324 323 323 322 322 322 322 323 325 325 326
308 308 308 309 309 308 308 307 307 308 309 313 316 320 319 320 322 321 322 323 321 322 320 321 325 327 324 324 326 327 327 328 323 325 324 322 325 324 324 325 323 321 322 322 322 322 322 321 321 321 321 321 322 322
307 308 309 310 308 308 308 307 308 310 311 314 316 316 317 318 319 320 320 320 319 324 327 328 323 324 326 327 326 325 324 323 324 326 324 323 324 325 324 323 323 320 321 322 322 321 322 321 319 318 319 319 319 320
308 309 309 309 309 308 308 308 310 312 314 314 315 316 316 316 320 322 320 319 320 323 324 327 326 329 326 327 327 325 324 326 326 328 328 326 325 324 323 323 322 320 321 322 322 321 320 318 318 319 319 319 318 318
308 308 309 309 309 309 310 309 309 313 314 313 314 314 313 313 314 315 320 318 320 322 323 326 327 329 329 330 330 327 327 327 329 329 327 325 324 324 323 320 321 320 320 321 320 320 320 319 320 319 319 318 317 317
308 308 308 309 309 309 313 313 310 312 314 314 314 314 314 315 315 314 314 316 321 321 322 326 327 326 328 328 327 328 329 328 327 329 329 327 325 321 320 319 320 319 319 319 318 317 318 318 317 317 317 316 317 317
307 307 307 308 308 309 310 312 314 312 313 315 314 314 316 314 315 316 316 315 318 321 319 321 323 323 323 323 323 325 327 326 329 329 329 329 325 325 325 324 322 322 323 323 324 324 319 321 320 320 318 316 316 315
306 307 308 308 309 310 311 311 312 313 314 315 316 317 317 318 319 317 316 318 318 319 319 319 320 322 322 323 323 322 324 325 325 325 321 321 326 326 325 323 324 326 327 327 327 328 327 326 324 323 323 323 320 319
308 308 309 309 311 310 311 311 314 315 316 317 317 319 319 319 318 315 319 318 318 319 319 320 320 320 321 319 319 319 319 322 326 325 325 324 324 321 321 321 322 324 325 324 323 323 325 323 321 321 321 320 319 319
307 309 312 312 311 311 313 314 314 315 316 317 317 318 319 322 318 321 322 322 321 319 319 322 319 319 319 321 323 322 322 321 323 324 324 325 324 321 321 323 323 322 323 324 323 323 322 321 318 317 318 318 317 317
309 309 309 307 312 313 314 315 317 318 318 318 319 320 322 322 326 325 325 326 325 323 322 321 321 322 323 326 325 324 321 321 325 325 324 322 323 323 323 323 322 322 321 321 320 319 319 318 318 318 317 317 317 316
309 310 308 311 315 314 314 316 317 317 319 321 322 323 322 323 325 326 325 326 325 324 323 324 325 325 326 325 326 325 323 320 320 323 322 321 322 323 323 324 325 324 320 320 320 320 319 318 317 317 316 314 314 315
310 311 311 310 312 314 316 316 317 317 315 320 323 323 323 324 324 326 325 324 323 321 320 320 320 321 321 321 319 321 321 321 322 321 320 320 320 320 322 321 320 321 319 318 318 318 318 316 316 315 316 316 315 315
309 309 312 313 313 314 314 314 315 321 321 321 321 323 325 325 325 323 323 321 321 321 320 318 320 320 321 321 322 321 320 319 318 318 317 317 315 315 315 316 315 315 315 317 318 317 317 317 316 316 316 316 316 315
310 312 313 314 314 316 316 316 317 320 321 321 323 326 325 325 323 320 320 321 318 320 320 320 321 321 320 320 321 322 321 319 319 319 319 318 318 318 316 316 316 315 315 315 316 315 315 314 314 315 315 315 315 314
311 312 313 315 318 319 319 317 319 320 319 321 323 323 322 322 320 317 319 320 321 321 320 319 322 322 323 321 321 321 320 319 318 318 319 319 320 319 318 317 317 316 314 315 314 314 312 311 311 312 313 314 314 312
312 313 314 315 316 316 318 317 317 315 320 321 321 324 323 323 320 318 320 321 321 319 315 317 320 322 322 322 322 322 322 321 319 319 319 319 319 319 318 317 316 315 314 314 314 314 314 313 313 312 311 310 311 312
312 312 312 314 315 315 315 316 318 320 321 323 324 324 321 322 324 321 317 318 318 316 313 316 317 317 317 319 319 319 318 317 317 317 317 317 318 319 318 317 315 315 314 314 313 314 314 314 313 312 311 309 310 311
312 313 313 314 316 317 317 317 320 321 322 325 325 324 321 321 321 317 314 311 314 312 313 314 313 313 313 314 314 315 315 314 314 313 314 314 314 313 314 314 314 315 315 314 314 314 313 314 314 313 311 310 311 311